| time (UTC) | temp F | wind direction | speed MPH | gust MPH | rain 1hr in | rain 24hr in | rain mn in | humidity % | barometer mb |
| 20260502230014 | 87 | 0 | 3.0 | 7.0 | 0.00 | 0.00 | 0.00 | 28 | 1010.3 |
| 20260502225700 | 87 | 71 | 3.0 | 7.0 | 0.00 | 0.00 | 0.00 | 27 | 1010.3 |
| 20260502225648 | 87 | 98 | 4.0 | 7.0 | 0.00 | 0.00 | 0.00 | 27 | 1010.3 |
| 20260502225635 | 87 | 74 | 4.0 | 7.0 | 0.00 | 0.00 | 0.00 | 28 | 1010.4 |
| 20260502225048 | 87 | 61 | 2.0 | 7.0 | 0.00 | 0.00 | 0.00 | 29 | 1010.5 |
| 20260502225018 | 87 | 68 | 3.0 | 7.0 | 0.00 | 0.00 | 0.00 | 27 | 1010.5 |
| 20260502225006 | 87 | 67 | 3.0 | 7.0 | 0.00 | 0.00 | 0.00 | 27 | 1010.5 |
| 20260502224649 | 87 | 0 | 1.0 | 8.0 | 0.00 | 0.00 | 0.00 | 28 | 1010.5 |
| 20260502224617 | 87 | 5 | 2.0 | 8.0 | 0.00 | 0.00 | 0.00 | 28 | 1010.5 |
| 20260502224603 | 87 | 64 | 4.0 | 8.0 | 0.00 | 0.00 | 0.00 | 27 | 1010.5 |
| 20260502224242 | 87 | 16 | 2.0 | 8.0 | 0.00 | 0.00 | 0.00 | 28 | 1010.6 |
| 20260502224148 | 87 | 104 | 2.0 | 8.0 | 0.00 | 0.00 | 0.00 | 28 | 1010.6 |
| 20260502224042 | 87 | 84 | 2.0 | 8.0 | 0.00 | 0.00 | 0.00 | 28 | 1010.6 |
| 20260502223942 | 87 | 27 | 3.0 | 8.0 | 0.00 | 0.00 | 0.00 | 28 | 1010.6 |
| 20260502223842 | 87 | 50 | 3.0 | 8.0 | 0.00 | 0.00 | 0.00 | 28 | 1010.7 |
| 20260502223740 | 87 | 69 | 1.0 | 11.0 | 0.00 | 0.00 | 0.00 | 29 | 1010.7 |
| 20260502223723 | 87 | 80 | 2.0 | 11.0 | 0.00 | 0.00 | 0.00 | 29 | 1010.6 |
| 20260502223701 | 87 | 26 | 2.0 | 11.0 | 0.00 | 0.00 | 0.00 | 28 | 1010.6 |
| 20260502223426 | 87 | 32 | 2.0 | 11.0 | 0.00 | 0.00 | 0.00 | 28 | 1010.6 |
| 20260502223414 | 87 | 105 | 2.0 | 11.0 | 0.00 | 0.00 | 0.00 | 28 | 1010.7 |
| 20260502223128 | 87 | 70 | 4.0 | 11.0 | 0.00 | 0.00 | 0.00 | 28 | 1010.7 |
| 20260502223116 | 87 | 18 | 3.0 | 11.0 | 0.00 | 0.00 | 0.00 | 28 | 1010.7 |
| 20260502223103 | 87 | 28 | 3.0 | 11.0 | 0.00 | 0.00 | 0.00 | 29 | 1010.8 |
| 20260502222831 | 87 | 49 | 5.0 | 9.0 | 0.00 | 0.00 | 0.00 | 28 | 1010.7 |
| 20260502222429 | 87 | 122 | 3.0 | 9.0 | 0.00 | 0.00 | 0.00 | 29 | 1010.7 |
| 20260502222332 | 87 | 69 | 3.0 | 9.0 | 0.00 | 0.00 | 0.00 | 32 | 1010.7 |
| 20260502222235 | 87 | 65 | 2.0 | 9.0 | 0.00 | 0.00 | 0.00 | 29 | 1010.7 |
| 20260502222219 | 87 | 344 | 3.0 | 9.0 | 0.00 | 0.00 | 0.00 | 30 | 1010.7 |
| 20260502222154 | 87 | 107 | 3.0 | 9.0 | 0.00 | 0.00 | 0.00 | 30 | 1010.8 |
| 20260502221916 | 87 | 140 | 2.0 | 4.0 | 0.00 | 0.00 | 0.00 | 31 | 1010.8 |
| 20260502221905 | 87 | 157 | 2.0 | 4.0 | 0.00 | 0.00 | 0.00 | 30 | 1010.8 |
| 20260502221853 | 87 | 31 | 1.0 | 4.0 | 0.00 | 0.00 | 0.00 | 29 | 1010.8 |
| 20260502221829 | 87 | 309 | 1.0 | 6.0 | 0.00 | 0.00 | 0.00 | 29 | 1010.8 |
| 20260502221558 | 86 | 5 | 2.0 | 10.0 | 0.00 | 0.00 | 0.00 | 31 | 1010.8 |
| 20260502221328 | 86 | 306 | 1.0 | 10.0 | 0.00 | 0.00 | 0.00 | 31 | 1010.9 |
| 20260502221043 | 86 | 255 | 2.0 | 10.0 | 0.00 | 0.00 | 0.00 | 29 | 1010.9 |
| 20260502221030 | 85 | 78 | 3.0 | 10.0 | 0.00 | 0.00 | 0.00 | 30 | 1010.9 |
| 20260502221019 | 85 | 338 | 4.0 | 10.0 | 0.00 | 0.00 | 0.00 | 30 | 1010.9 |
| 20260502221007 | 85 | 12 | 4.0 | 10.0 | 0.00 | 0.00 | 0.00 | 29 | 1011.0 |
| 20260502220945 | 85 | 47 | 4.0 | 10.0 | 0.00 | 0.00 | 0.00 | 31 | 1011.0 |
| 20260502220931 | 85 | 5 | 3.0 | 10.0 | 0.00 | 0.00 | 0.00 | 31 | 1011.0 |
| 20260502220920 | 85 | 283 | 2.0 | 8.0 | 0.00 | 0.00 | 0.00 | 30 | 1011.0 |
| 20260502215937 | 85 | 68 | 3.0 | 12.0 | 0.00 | 0.00 | 0.00 | 31 | 1011.0 |
| 20260502215926 | 85 | 324 | 2.0 | 12.0 | 0.00 | 0.00 | 0.00 | 30 | 1011.0 |
| 20260502215912 | 85 | 11 | 3.0 | 12.0 | 0.00 | 0.00 | 0.00 | 32 | 1011.0 |
| 20260502215630 | 85 | 352 | 3.0 | 12.0 | 0.00 | 0.00 | 0.00 | 30 | 1011.1 |
| 20260502215547 | 85 | 26 | 3.0 | 12.0 | 0.00 | 0.00 | 0.00 | 30 | 1011.1 |
| 20260502215317 | 85 | 345 | 5.0 | 12.0 | 0.00 | 0.00 | 0.00 | 31 | 1011.0 |
| 20260502215250 | 85 | 343 | 4.0 | 12.0 | 0.00 | 0.00 | 0.00 | 31 | 1011.1 |
| 20260502214714 | 85 | 352 | 2.0 | 8.0 | 0.00 | 0.00 | 0.00 | 31 | 1011.1 |
| 20260502214606 | 85 | 40 | 2.0 | 8.0 | 0.00 | 0.00 | 0.00 | 31 | 1011.1 |
| 20260502214505 | 84 | 87 | 3.0 | 8.0 | 0.00 | 0.00 | 0.00 | 31 | 1011.1 |
| 20260502214403 | 84 | 80 | 4.0 | 8.0 | 0.00 | 0.00 | 0.00 | 30 | 1011.2 |
| 20260502214304 | 84 | 109 | 5.0 | 8.0 | 0.00 | 0.00 | 0.00 | 30 | 1011.2 |
| 20260502214202 | 84 | 51 | 3.0 | 8.0 | 0.00 | 0.00 | 0.00 | 31 | 1011.2 |
| 20260502214103 | 84 | 86 | 3.0 | 6.0 | 0.00 | 0.00 | 0.00 | 30 | 1011.2 |
| 20260502214003 | 84 | 89 | 3.0 | 6.0 | 0.00 | 0.00 | 0.00 | 31 | 1011.3 |
| 20260502213902 | 84 | 323 | 3.0 | 6.0 | 0.00 | 0.00 | 0.00 | 32 | 1011.3 |
| 20260502213803 | 84 | 53 | 3.0 | 8.0 | 0.00 | 0.00 | 0.00 | 32 | 1011.3 |
| 20260502213744 | 84 | 36 | 2.0 | 9.0 | 0.00 | 0.00 | 0.00 | 34 | 1011.3 |
| 20260502213721 | 84 | 40 | 1.0 | 9.0 | 0.00 | 0.00 | 0.00 | 34 | 1011.3 |
| 20260502213401 | 84 | 112 | 2.0 | 9.0 | 0.00 | 0.00 | 0.00 | 34 | 1011.3 |
| 20260502213302 | 84 | 5 | 3.0 | 9.0 | 0.00 | 0.00 | 0.00 | 34 | 1011.3 |
| 20260502213203 | 84 | 66 | 3.0 | 9.0 | 0.00 | 0.00 | 0.00 | 34 | 1011.4 |
| 20260502213105 | 84 | 30 | 4.0 | 9.0 | 0.00 | 0.00 | 0.00 | 36 | 1011.3 |
| 20260502213000 | 84 | 5 | 5.0 | 9.0 | 0.00 | 0.00 | 0.00 | 36 | 1011.4 |
| 20260502212903 | 83 | 26 | 4.0 | 9.0 | 0.00 | 0.00 | 0.00 | 35 | 1011.4 |
| 20260502212801 | 83 | 59 | 3.0 | 9.0 | 0.00 | 0.00 | 0.00 | 36 | 1011.4 |
| 20260502212705 | 83 | 73 | 3.0 | 7.0 | 0.00 | 0.00 | 0.00 | 36 | 1011.3 |
| 20260502212620 | 83 | 76 | 2.0 | 5.0 | 0.00 | 0.00 | 0.00 | 36 | 1011.4 |
| 20260502212505 | 83 | 60 | 2.0 | 7.0 | 0.00 | 0.00 | 0.00 | 36 | 1011.4 |
| 20260502212402 | 83 | 82 | 1.0 | 7.0 | 0.00 | 0.00 | 0.00 | 35 | 1011.4 |
| 20260502212301 | 83 | 5 | 2.0 | 7.0 | 0.00 | 0.00 | 0.00 | 35 | 1011.4 |
| 20260502212201 | 83 | 336 | 2.0 | 7.0 | 0.00 | 0.00 | 0.00 | 36 | 1011.5 |
| 20260502212114 | 83 | 352 | 2.0 | 7.0 | 0.00 | 0.00 | 0.00 | 36 | 1011.4 |
| 20260502212033 | 83 | 18 | 2.0 | 7.0 | 0.00 | 0.00 | 0.00 | 34 | 1011.5 |
| 20260502212021 | 83 | 274 | 3.0 | 7.0 | 0.00 | 0.00 | 0.00 | 34 | 1011.5 |
| 20260502211707 | 83 | 15 | 3.0 | 8.0 | 0.00 | 0.00 | 0.00 | 35 | 1011.6 |
| 20260502211645 | 83 | 48 | 3.0 | 8.0 | 0.00 | 0.00 | 0.00 | 35 | 1011.6 |
| 20260502211622 | 83 | 304 | 4.0 | 8.0 | 0.00 | 0.00 | 0.00 | 34 | 1011.6 |
| 20260502211303 | 83 | 9 | 2.0 | 8.0 | 0.00 | 0.00 | 0.00 | 34 | 1011.6 |
| 20260502211201 | 83 | 21 | 2.0 | 8.0 | 0.00 | 0.00 | 0.00 | 37 | 1011.7 |
| 20260502211110 | 83 | 343 | 3.0 | 8.0 | 0.00 | 0.00 | 0.00 | 37 | 1011.6 |
| 20260502211031 | 83 | 101 | 4.0 | 8.0 | 0.00 | 0.00 | 0.00 | 36 | 1011.7 |
| 20260502211020 | 83 | 59 | 5.0 | 8.0 | 0.00 | 0.00 | 0.00 | 36 | 1011.7 |
| 20260502210703 | 83 | 86 | 3.0 | 8.0 | 0.00 | 0.00 | 0.00 | 35 | 1011.7 |
| 20260502210605 | 83 | 33 | 3.0 | 9.0 | 0.00 | 0.00 | 0.00 | 36 | 1011.7 |
| 20260502210504 | 83 | 30 | 2.0 | 9.0 | 0.00 | 0.00 | 0.00 | 35 | 1011.7 |
| 20260502210401 | 83 | 81 | 2.0 | 9.0 | 0.00 | 0.00 | 0.00 | 36 | 1011.7 |
| 20260502210305 | 82 | 39 | 3.0 | 9.0 | 0.00 | 0.00 | 0.00 | 35 | 1011.7 |
| 20260502210200 | 82 | 352 | 4.0 | 9.0 | 0.00 | 0.00 | 0.00 | 35 | 1011.8 |
| 20260502210105 | 82 | 0 | 3.0 | 9.0 | 0.00 | 0.00 | 0.00 | 34 | 1011.8 |
| 20260502210001 | 83 | 11 | 4.0 | 9.0 | 0.00 | 0.00 | 0.00 | 34 | 1011.8 |
| 20260502205902 | 82 | 13 | 5.0 | 9.0 | 0.00 | 0.00 | 0.00 | 36 | 1011.8 |
| 20260502205801 | 83 | 320 | 4.0 | 9.0 | 0.00 | 0.00 | 0.00 | 36 | 1011.8 |
| 20260502205703 | 82 | 15 | 2.0 | 9.0 | 0.00 | 0.00 | 0.00 | 36 | 1011.8 |
| 20260502205635 | 83 | 283 | 3.0 | 6.0 | 0.00 | 0.00 | 0.00 | 38 | 1011.8 |
| 20260502205610 | 83 | 313 | 3.0 | 6.0 | 0.00 | 0.00 | 0.00 | 37 | 1011.8 |
| 20260502205558 | 82 | 300 | 2.0 | 6.0 | 0.00 | 0.00 | 0.00 | 37 | 1011.9 |
| 20260502205201 | 82 | 303 | 3.0 | 6.0 | 0.00 | 0.00 | 0.00 | 38 | 1011.9 |
| 20260502205107 | 82 | 345 | 3.0 | 6.0 | 0.00 | 0.00 | 0.00 | 38 | 1011.9 |
| 20260502205001 | 82 | 298 | 4.0 | 6.0 | 0.00 | 0.00 | 0.00 | 37 | 1011.8 |
| 20260502204903 | 82 | 289 | 3.0 | 6.0 | 0.00 | 0.00 | 0.00 | 38 | 1011.9 |
| 20260502204802 | 82 | 350 | 2.0 | 6.0 | 0.00 | 0.00 | 0.00 | 40 | 1011.9 |
| 20260502204725 | 82 | 352 | 2.0 | 6.0 | 0.00 | 0.00 | 0.00 | 38 | 1011.9 |
| 20260502204712 | 81 | 291 | 2.0 | 6.0 | 0.00 | 0.00 | 0.00 | 38 | 1011.9 |
| 20260502204650 | 81 | 273 | 3.0 | 6.0 | 0.00 | 0.00 | 0.00 | 38 | 1011.9 |
| 20260502204418 | 81 | 307 | 2.0 | 9.0 | 0.00 | 0.00 | 0.00 | 38 | 1011.9 |
| 20260502204406 | 81 | 5 | 2.0 | 9.0 | 0.00 | 0.00 | 0.00 | 39 | 1012.0 |
| 20260502204353 | 81 | 74 | 3.0 | 9.0 | 0.00 | 0.00 | 0.00 | 39 | 1012.0 |
| 20260502203841 | 80 | 309 | 2.0 | 9.0 | 0.00 | 0.00 | 0.00 | 39 | 1012.0 |
| 20260502203830 | 80 | 285 | 2.0 | 9.0 | 0.00 | 0.00 | 0.00 | 39 | 1012.0 |
| 20260502203535 | 80 | 329 | 5.0 | 9.0 | 0.00 | 0.00 | 0.00 | 39 | 1012.0 |
| 20260502203524 | 80 | 340 | 4.0 | 9.0 | 0.00 | 0.00 | 0.00 | 38 | 1012.1 |
| 20260502203202 | 81 | 352 | 4.0 | 8.0 | 0.00 | 0.00 | 0.00 | 39 | 1012.1 |
| 20260502203104 | 81 | 290 | 4.0 | 8.0 | 0.00 | 0.00 | 0.00 | 38 | 1012.0 |
| 20260502203000 | 81 | 313 | 4.0 | 8.0 | 0.00 | 0.00 | 0.00 | 39 | 1012.1 |
| 20260502202937 | 81 | 11 | 4.0 | 8.0 | 0.00 | 0.00 | 0.00 | 40 | 1012.1 |
| 20260502202924 | 81 | 294 | 4.0 | 8.0 | 0.00 | 0.00 | 0.00 | 39 | 1012.1 |
| 20260502202620 | 81 | 335 | 3.0 | 9.0 | 0.00 | 0.00 | 0.00 | 38 | 1012.1 |
| 20260502202553 | 81 | 352 | 3.0 | 9.0 | 0.00 | 0.00 | 0.00 | 38 | 1012.1 |
| 20260502202539 | 81 | 338 | 3.0 | 9.0 | 0.00 | 0.00 | 0.00 | 37 | 1012.1 |
| 20260502202528 | 81 | 14 | 3.0 | 9.0 | 0.00 | 0.00 | 0.00 | 37 | 1012.1 |
| 20260502202516 | 81 | 341 | 3.0 | 9.0 | 0.00 | 0.00 | 0.00 | 39 | 1012.2 |
| 20260502202505 | 81 | 43 | 4.0 | 9.0 | 0.00 | 0.00 | 0.00 | 38 | 1012.2 |
| 20260502202440 | 81 | 11 | 4.0 | 9.0 | 0.00 | 0.00 | 0.00 | 37 | 1012.2 |
| 20260502202138 | 80 | 316 | 3.0 | 9.0 | 0.00 | 0.00 | 0.00 | 37 | 1012.3 |
| 20260502201905 | 80 | 58 | 3.0 | 8.0 | 0.00 | 0.00 | 0.00 | 39 | 1012.3 |
| 20260502201404 | 80 | 314 | 3.0 | 8.0 | 0.00 | 0.00 | 0.00 | 41 | 1012.3 |
| 20260502201352 | 80 | 277 | 2.0 | 8.0 | 0.00 | 0.00 | 0.00 | 42 | 1012.4 |
| 20260502201339 | 80 | 296 | 2.0 | 8.0 | 0.00 | 0.00 | 0.00 | 42 | 1012.4 |
| 20260502201314 | 80 | 236 | 2.0 | 8.0 | 0.00 | 0.00 | 0.00 | 42 | 1012.4 |
| 20260502201042 | 79 | 273 | 3.0 | 8.0 | 0.00 | 0.00 | 0.00 | 43 | 1012.5 |
| 20260502200535 | 79 | 331 | 4.0 | 8.0 | 0.00 | 0.00 | 0.00 | 41 | 1012.5 |
| 20260502200523 | 79 | 340 | 3.0 | 8.0 | 0.00 | 0.00 | 0.00 | 42 | 1012.5 |
| 20260502200202 | 79 | 341 | 4.0 | 7.0 | 0.00 | 0.00 | 0.00 | 41 | 1012.6 |
| 20260502200001 | 79 | 294 | 4.0 | 8.0 | 0.00 | 0.00 | 0.00 | 43 | 1012.6 |
| 20260502195904 | 79 | 271 | 3.0 | 8.0 | 0.00 | 0.00 | 0.00 | 43 | 1012.6 |
| 20260502195801 | 79 | 343 | 3.0 | 8.0 | 0.00 | 0.00 | 0.00 | 43 | 1012.6 |
| 20260502195712 | 79 | 328 | 4.0 | 8.0 | 0.00 | 0.00 | 0.00 | 43 | 1012.6 |
| 20260502195654 | 78 | 330 | 4.0 | 8.0 | 0.00 | 0.00 | 0.00 | 44 | 1012.6 |
| 20260502195631 | 78 | 294 | 3.0 | 8.0 | 0.00 | 0.00 | 0.00 | 43 | 1012.7 |
| 20260502195618 | 78 | 286 | 4.0 | 8.0 | 0.00 | 0.00 | 0.00 | 44 | 1012.7 |
| 20260502195605 | 78 | 352 | 4.0 | 8.0 | 0.00 | 0.00 | 0.00 | 43 | 1012.8 |
| 20260502195335 | 78 | 344 | 2.0 | 7.0 | 0.00 | 0.00 | 0.00 | 43 | 1012.8 |
| 20260502195309 | 78 | 303 | 2.0 | 7.0 | 0.00 | 0.00 | 0.00 | 45 | 1012.8 |
| 20260502195227 | 78 | 291 | 3.0 | 7.0 | 0.00 | 0.00 | 0.00 | 43 | 1012.8 |
| 20260502195214 | 78 | 54 | 4.0 | 7.0 | 0.00 | 0.00 | 0.00 | 42 | 1012.8 |
| 20260502195203 | 78 | 5 | 2.0 | 7.0 | 0.00 | 0.00 | 0.00 | 43 | 1012.9 |
| 20260502194922 | 78 | 318 | 3.0 | 7.0 | 0.00 | 0.00 | 0.00 | 43 | 1012.9 |
| 20260502194650 | 78 | 291 | 4.0 | 12.0 | 0.00 | 0.00 | 0.00 | 43 | 1012.9 |
| 20260502194417 | 78 | 292 | 3.0 | 12.0 | 0.00 | 0.00 | 0.00 | 44 | 1013.0 |
| 20260502193914 | 77 | 283 | 3.0 | 12.0 | 0.00 | 0.00 | 0.00 | 44 | 1013.0 |
| 20260502193553 | 78 | 281 | 6.0 | 12.0 | 0.00 | 0.00 | 0.00 | 43 | 1013.0 |
| 20260502193452 | 78 | 281 | 6.0 | 12.0 | 0.00 | 0.00 | 0.00 | 42 | 1013.0 |
| 20260502193352 | 78 | 312 | 3.0 | 12.0 | 0.00 | 0.00 | 0.00 | 43 | 1013.0 |
| 20260502193322 | 77 | 325 | 2.0 | 8.0 | 0.00 | 0.00 | 0.00 | 45 | 1013.0 |
| 20260502193310 | 77 | 295 | 1.0 | 8.0 | 0.00 | 0.00 | 0.00 | 44 | 1013.0 |
| 20260502192949 | 77 | 321 | 4.0 | 8.0 | 0.00 | 0.00 | 0.00 | 44 | 1013.1 |
| 20260502192850 | 77 | 339 | 4.0 | 8.0 | 0.00 | 0.00 | 0.00 | 43 | 1013.1 |
| 20260502192748 | 77 | 346 | 3.0 | 7.0 | 0.00 | 0.00 | 0.00 | 45 | 1013.1 |
| 20260502192648 | 77 | 352 | 2.0 | 7.0 | 0.00 | 0.00 | 0.00 | 44 | 1013.1 |
| 20260502192548 | 77 | 28 | 3.0 | 7.0 | 0.00 | 0.00 | 0.00 | 44 | 1013.2 |
| 20260502192449 | 76 | 79 | 3.0 | 7.0 | 0.00 | 0.00 | 0.00 | 45 | 1013.2 |
| 20260502192345 | 76 | 15 | 2.0 | 7.0 | 0.00 | 0.00 | 0.00 | 46 | 1013.2 |
| 20260502192246 | 76 | 346 | 3.0 | 8.0 | 0.00 | 0.00 | 0.00 | 45 | 1013.2 |
| 20260502192145 | 76 | 306 | 4.0 | 8.0 | 0.00 | 0.00 | 0.00 | 45 | 1013.2 |
| 20260502192047 | 76 | 336 | 2.0 | 8.0 | 0.00 | 0.00 | 0.00 | 44 | 1013.2 |
| 20260502191941 | 76 | 292 | 2.0 | 8.0 | 0.00 | 0.00 | 0.00 | 45 | 1013.2 |
| 20260502191841 | 76 | 247 | 2.0 | 8.0 | 0.00 | 0.00 | 0.00 | 46 | 1013.2 |
| 20260502191742 | 76 | 261 | 2.0 | 8.0 | 0.00 | 0.00 | 0.00 | 47 | 1013.3 |
| 20260502191640 | 76 | 0 | 3.0 | 8.0 | 0.00 | 0.00 | 0.00 | 45 | 1013.2 |
| 20260502191540 | 76 | 350 | 4.0 | 8.0 | 0.00 | 0.00 | 0.00 | 45 | 1013.3 |
| 20260502191436 | 76 | 24 | 3.0 | 8.0 | 0.00 | 0.00 | 0.00 | 45 | 1013.3 |
| 20260502191334 | 75 | 32 | 2.0 | 8.0 | 0.00 | 0.00 | 0.00 | 46 | 1013.3 |
| 20260502191234 | 75 | 349 | 3.0 | 5.0 | 0.00 | 0.00 | 0.00 | 45 | 1013.3 |
| 20260502191134 | 75 | 352 | 2.0 | 5.0 | 0.00 | 0.00 | 0.00 | 45 | 1013.3 |
| 20260502191035 | 75 | 352 | 2.0 | 5.0 | 0.00 | 0.00 | 0.00 | 47 | 1013.3 |
| 20260502190929 | 75 | 273 | 2.0 | 5.0 | 0.00 | 0.00 | 0.00 | 46 | 1013.3 |
| 20260502190830 | 75 | 319 | 2.0 | 5.0 | 0.00 | 0.00 | 0.00 | 45 | 1013.3 |
| 20260502190730 | 75 | 19 | 2.0 | 5.0 | 0.00 | 0.00 | 0.00 | 46 | 1013.3 |
| 20260502190631 | 75 | 336 | 2.0 | 6.0 | 0.00 | 0.00 | 0.00 | 46 | 1013.4 |
| 20260502190530 | 74 | 317 | 3.0 | 6.0 | 0.00 | 0.00 | 0.00 | 45 | 1013.4 |
| 20260502190433 | 74 | 284 | 3.0 | 8.0 | 0.00 | 0.00 | 0.00 | 47 | 1013.4 |
| 20260502190329 | 74 | 327 | 4.0 | 8.0 | 0.00 | 0.00 | 0.00 | 47 | 1013.4 |
| 20260502190233 | 74 | 5 | 3.0 | 8.0 | 0.00 | 0.00 | 0.00 | 46 | 1013.4 |
| 20260502190129 | 74 | 326 | 2.0 | 9.0 | 0.00 | 0.00 | 0.00 | 47 | 1013.5 |
| 20260502190037 | 74 | 317 | 2.0 | 9.0 | 0.00 | 0.00 | 0.00 | 45 | 1013.4 |
| 20260502185931 | 74 | 303 | 3.0 | 9.0 | 0.00 | 0.00 | 0.00 | 46 | 1013.5 |
| 20260502185832 | 74 | 276 | 3.0 | 9.0 | 0.00 | 0.00 | 0.00 | 45 | 1013.4 |
| 20260502185730 | 74 | 19 | 4.0 | 11.0 | 0.00 | 0.00 | 0.00 | 45 | 1013.5 |
| 20260502185632 | 74 | 18 | 4.0 | 11.0 | 0.00 | 0.00 | 0.00 | 45 | 1013.5 |
| 20260502185528 | 74 | 335 | 3.0 | 11.0 | 0.00 | 0.00 | 0.00 | 47 | 1013.6 |
| 20260502185430 | 74 | 14 | 4.0 | 11.0 | 0.00 | 0.00 | 0.00 | 45 | 1013.5 |
| 20260502185330 | 74 | 333 | 4.0 | 11.0 | 0.00 | 0.00 | 0.00 | 45 | 1013.5 |
| 20260502185233 | 74 | 19 | 2.0 | 11.0 | 0.00 | 0.00 | 0.00 | 46 | 1013.6 |
| 20260502185129 | 74 | 350 | 3.0 | 11.0 | 0.00 | 0.00 | 0.00 | 47 | 1013.6 |
| 20260502185034 | 74 | 294 | 4.0 | 11.0 | 0.00 | 0.00 | 0.00 | 45 | 1013.6 |
| 20260502184928 | 74 | 15 | 5.0 | 11.0 | 0.00 | 0.00 | 0.00 | 46 | 1013.6 |
| 20260502184832 | 74 | 324 | 4.0 | 11.0 | 0.00 | 0.00 | 0.00 | 45 | 1013.6 |
| 20260502184732 | 74 | 101 | 2.0 | 9.0 | 0.00 | 0.00 | 0.00 | 47 | 1013.6 |
| 20260502184715 | 74 | 352 | 2.0 | 9.0 | 0.00 | 0.00 | 0.00 | 45 | 1013.6 |
| 20260502184704 | 74 | 5 | 4.0 | 9.0 | 0.00 | 0.00 | 0.00 | 44 | 1013.6 |
| 20260502184329 | 74 | 18 | 4.0 | 9.0 | 0.00 | 0.00 | 0.00 | 46 | 1013.6 |
| 20260502184230 | 74 | 5 | 5.0 | 9.0 | 0.00 | 0.00 | 0.00 | 45 | 1013.6 |
| 20260502184129 | 74 | 14 | 4.0 | 9.0 | 0.00 | 0.00 | 0.00 | 46 | 1013.7 |
| 20260502184031 | 74 | 333 | 3.0 | 9.0 | 0.00 | 0.00 | 0.00 | 48 | 1013.6 |
| 20260502183929 | 74 | 302 | 2.0 | 7.0 | 0.00 | 0.00 | 0.00 | 47 | 1013.6 |
| 20260502183831 | 73 | 74 | 2.0 | 7.0 | 0.00 | 0.00 | 0.00 | 47 | 1013.7 |
| 20260502183729 | 73 | 329 | 3.0 | 7.0 | 0.00 | 0.00 | 0.00 | 48 | 1013.6 |
| 20260502183632 | 73 | 0 | 3.0 | 7.0 | 0.00 | 0.00 | 0.00 | 48 | 1013.6 |
| 20260502183613 | 73 | 352 | 3.0 | 7.0 | 0.00 | 0.00 | 0.00 | 49 | 1013.6 |
| 20260502183551 | 73 | 338 | 3.0 | 7.0 | 0.00 | 0.00 | 0.00 | 47 | 1013.6 |
| 20260502183230 | 73 | 279 | 4.0 | 7.0 | 0.00 | 0.00 | 0.00 | 48 | 1013.6 |
| 20260502183159 | 73 | 277 | 4.0 | 7.0 | 0.00 | 0.00 | 0.00 | 47 | 1013.6 |
| 20260502183148 | 73 | 286 | 3.0 | 7.0 | 0.00 | 0.00 | 0.00 | 48 | 1013.6 |
| 20260502183120 | 73 | 278 | 3.0 | 7.0 | 0.00 | 0.00 | 0.00 | 47 | 1013.6 |
| 20260502182526 | 73 | 323 | 4.0 | 7.0 | 0.00 | 0.00 | 0.00 | 46 | 1013.6 |
| 20260502182430 | 73 | 352 | 4.0 | 7.0 | 0.00 | 0.00 | 0.00 | 47 | 1013.7 |
| 20260502182326 | 72 | 312 | 3.0 | 7.0 | 0.00 | 0.00 | 0.00 | 47 | 1013.6 |
| 20260502182252 | 72 | 35 | 3.0 | 7.0 | 0.00 | 0.00 | 0.00 | 48 | 1013.6 |
| 20260502182237 | 72 | 349 | 3.0 | 7.0 | 0.00 | 0.00 | 0.00 | 48 | 1013.6 |
| 20260502182227 | 72 | 340 | 4.0 | 7.0 | 0.00 | 0.00 | 0.00 | 46 | 1013.6 |
| 20260502181823 | 72 | 289 | 4.0 | 7.0 | 0.00 | 0.00 | 0.00 | 47 | 1013.6 |
| 20260502181721 | 72 | 330 | 3.0 | 6.0 | 0.00 | 0.00 | 0.00 | 47 | 1013.6 |
| 20260502181621 | 72 | 0 | 2.0 | 6.0 | 0.00 | 0.00 | 0.00 | 47 | 1013.6 |
| 20260502181546 | 72 | 333 | 2.0 | 6.0 | 0.00 | 0.00 | 0.00 | 49 | 1013.6 |
| 20260502181524 | 72 | 304 | 3.0 | 7.0 | 0.00 | 0.00 | 0.00 | 47 | 1013.6 |
| 20260502181510 | 72 | 313 | 3.0 | 7.0 | 0.00 | 0.00 | 0.00 | 48 | 1013.6 |
| 20260502181457 | 72 | 335 | 3.0 | 8.0 | 0.00 | 0.00 | 0.00 | 48 | 1013.6 |
| 20260502180919 | 72 | 329 | 2.0 | 8.0 | 0.00 | 0.00 | 0.00 | 48 | 1013.6 |
| 20260502180814 | 72 | 350 | 3.0 | 8.0 | 0.00 | 0.00 | 0.00 | 48 | 1013.6 |
| 20260502180743 | 72 | 300 | 4.0 | 8.0 | 0.00 | 0.00 | 0.00 | 49 | 1013.6 |
| 20260502180732 | 72 | 11 | 4.0 | 8.0 | 0.00 | 0.00 | 0.00 | 47 | 1013.6 |
| 20260502180411 | 72 | 304 | 4.0 | 8.0 | 0.00 | 0.00 | 0.00 | 48 | 1013.6 |
| 20260502180310 | 72 | 288 | 4.0 | 8.0 | 0.00 | 0.00 | 0.00 | 49 | 1013.7 |
| 20260502180210 | 72 | 302 | 4.0 | 7.0 | 0.00 | 0.00 | 0.00 | 48 | 1013.6 |
| 20260502180151 | 72 | 272 | 2.0 | 7.0 | 0.00 | 0.00 | 0.00 | 50 | 1013.6 |
| 20260502180140 | 71 | 270 | 2.0 | 7.0 | 0.00 | 0.00 | 0.00 | 50 | 1013.6 |
| 20260502170442 | 67 | 348 | 3.0 | 11.0 | 0.00 | 0.00 | 0.00 | 55 | 1013.8 |
| 20260502170329 | 67 | 285 | 4.0 | 11.0 | 0.00 | 0.00 | 0.00 | 56 | 1013.7 |
| 20260502170230 | 67 | 5 | 6.0 | 11.0 | 0.00 | 0.00 | 0.00 | 55 | 1013.7 |
| 20260502170129 | 67 | 340 | 4.0 | 11.0 | 0.00 | 0.00 | 0.00 | 55 | 1013.7 |
| 20260502164206 | 66 | 5 | 4.0 | 8.0 | 0.00 | 0.00 | 0.00 | 57 | 1013.6 |
| 20260502164106 | 66 | 0 | 4.0 | 8.0 | 0.00 | 0.00 | 0.00 | 57 | 1013.5 |
| 20260502164005 | 65 | 5 | 3.0 | 8.0 | 0.00 | 0.00 | 0.00 | 57 | 1013.6 |
| 20260502163903 | 65 | 329 | 3.0 | 8.0 | 0.00 | 0.00 | 0.00 | 58 | 1013.6 |
| 20260502163802 | 65 | 313 | 3.0 | 8.0 | 0.00 | 0.00 | 0.00 | 58 | 1013.6 |
| 20260502163705 | 65 | 351 | 3.0 | 8.0 | 0.00 | 0.00 | 0.00 | 58 | 1013.6 |
| 20260502163603 | 65 | 330 | 4.0 | 8.0 | 0.00 | 0.00 | 0.00 | 58 | 1013.6 |
| 20260502163501 | 65 | 333 | 4.0 | 8.0 | 0.00 | 0.00 | 0.00 | 59 | 1013.6 |
| 20260502163404 | 65 | 338 | 2.0 | 8.0 | 0.00 | 0.00 | 0.00 | 58 | 1013.6 |
| 20260502163304 | 65 | 25 | 2.0 | 8.0 | 0.00 | 0.00 | 0.00 | 59 | 1013.6 |
| 20260502163203 | 64 | 294 | 4.0 | 8.0 | 0.00 | 0.00 | 0.00 | 59 | 1013.6 |
| 20260502163101 | 64 | 311 | 3.0 | 8.0 | 0.00 | 0.00 | 0.00 | 58 | 1013.6 |
| 20260502163002 | 64 | 281 | 3.0 | 8.0 | 0.00 | 0.00 | 0.00 | 58 | 1013.6 |
| 20260502162931 | 64 | 273 | 3.0 | 8.0 | 0.00 | 0.00 | 0.00 | 58 | 1013.6 |
| 20260502162919 | 64 | 256 | 4.0 | 8.0 | 0.00 | 0.00 | 0.00 | 58 | 1013.6 |
| 20260502162627 | 64 | 293 | 5.0 | 8.0 | 0.00 | 0.00 | 0.00 | 58 | 1013.5 |
| 20260502162612 | 64 | 279 | 4.0 | 8.0 | 0.00 | 0.00 | 0.00 | 58 | 1013.6 |
| 20260502162546 | 64 | 284 | 3.0 | 8.0 | 0.00 | 0.00 | 0.00 | 58 | 1013.6 |
| 20260502162533 | 64 | 285 | 2.0 | 7.0 | 0.00 | 0.00 | 0.00 | 59 | 1013.5 |
| 20260502162036 | 64 | 292 | 3.0 | 6.0 | 0.00 | 0.00 | 0.00 | 59 | 1013.6 |
| 20260502162013 | 64 | 293 | 2.0 | 6.0 | 0.00 | 0.00 | 0.00 | 59 | 1013.6 |
| 20260502161650 | 64 | 327 | 2.0 | 6.0 | 0.00 | 0.00 | 0.00 | 60 | 1013.6 |
| 20260502161616 | 64 | 300 | 2.0 | 8.0 | 0.00 | 0.00 | 0.00 | 61 | 1013.6 |
| 20260502161449 | 64 | 248 | 2.0 | 9.0 | 0.00 | 0.00 | 0.00 | 60 | 1013.5 |
| 20260502161420 | 64 | 327 | 3.0 | 9.0 | 0.00 | 0.00 | 0.00 | 60 | 1013.5 |
| 20260502161409 | 64 | 287 | 2.0 | 9.0 | 0.00 | 0.00 | 0.00 | 61 | 1013.6 |
| 20260502161047 | 63 | 286 | 3.0 | 9.0 | 0.00 | 0.00 | 0.00 | 60 | 1013.5 |
| 20260502160945 | 63 | 297 | 2.0 | 9.0 | 0.00 | 0.00 | 0.00 | 60 | 1013.5 |
| 20260502160844 | 63 | 345 | 4.0 | 9.0 | 0.00 | 0.00 | 0.00 | 60 | 1013.5 |
| 20260502160744 | 63 | 342 | 6.0 | 9.0 | 0.00 | 0.00 | 0.00 | 60 | 1013.5 |
| 20260502160643 | 63 | 278 | 6.0 | 9.0 | 0.00 | 0.00 | 0.00 | 60 | 1013.6 |
| 20260502160541 | 63 | 267 | 5.0 | 9.0 | 0.00 | 0.00 | 0.00 | 60 | 1013.5 |
| 20260502160441 | 63 | 267 | 4.0 | 8.0 | 0.00 | 0.00 | 0.00 | 61 | 1013.6 |
| 20260502160351 | 63 | 241 | 3.0 | 8.0 | 0.00 | 0.00 | 0.00 | 59 | 1013.5 |
| 20260502160336 | 63 | 261 | 3.0 | 7.0 | 0.00 | 0.00 | 0.00 | 60 | 1013.6 |
| 20260502160324 | 63 | 279 | 2.0 | 7.0 | 0.00 | 0.00 | 0.00 | 60 | 1013.6 |
| 20260502160313 | 63 | 246 | 2.0 | 6.0 | 0.00 | 0.00 | 0.00 | 61 | 1013.6 |
| 20260502152321 | 61 | 330 | 2.0 | 4.0 | 0.00 | 0.00 | 0.00 | 62 | 1013.4 |
| 20260502152004 | 61 | 0 | 2.0 | 6.0 | 0.00 | 0.00 | 0.00 | 62 | 1013.4 |
| 20260502151944 | 61 | 324 | 2.0 | 6.0 | 0.00 | 0.00 | 0.00 | 62 | 1013.4 |
| 20260502151921 | 61 | 333 | 2.0 | 6.0 | 0.00 | 0.00 | 0.00 | 62 | 1013.4 |
| 20260502151628 | 61 | 321 | 2.0 | 6.0 | 0.00 | 0.00 | 0.00 | 63 | 1013.4 |
| 20260502151614 | 61 | 346 | 3.0 | 6.0 | 0.00 | 0.00 | 0.00 | 63 | 1013.4 |
| 20260502151603 | 61 | 288 | 3.0 | 6.0 | 0.00 | 0.00 | 0.00 | 62 | 1013.5 |
| 20260502151202 | 61 | 272 | 2.0 | 6.0 | 0.00 | 0.00 | 0.00 | 62 | 1013.4 |
| 20260502151101 | 61 | 248 | 1.0 | 4.0 | 0.00 | 0.00 | 0.00 | 62 | 1013.5 |
| 20260502151045 | 61 | 262 | 1.0 | 4.0 | 0.00 | 0.00 | 0.00 | 62 | 1013.4 |
| 20260502151031 | 61 | 281 | 1.0 | 4.0 | 0.00 | 0.00 | 0.00 | 63 | 1013.4 |
| 20260502150706 | 61 | 286 | 1.0 | 5.0 | 0.00 | 0.00 | 0.00 | 63 | 1013.3 |
| 20260502150601 | 61 | 352 | 2.0 | 5.0 | 0.00 | 0.00 | 0.00 | 62 | 1013.3 |
| 20260502150528 | 61 | 325 | 2.0 | 5.0 | 0.00 | 0.00 | 0.00 | 62 | 1013.4 |
| 20260502150516 | 61 | 336 | 2.0 | 5.0 | 0.00 | 0.00 | 0.00 | 62 | 1013.3 |
| 20260502150452 | 61 | 342 | 2.0 | 5.0 | 0.00 | 0.00 | 0.00 | 62 | 1013.3 |
| 20260502150218 | 61 | 284 | 2.0 | 7.0 | 0.00 | 0.00 | 0.00 | 62 | 1013.3 |
| 20260502130528 | 56 | 228 | 0.0 | 0.0 | 0.00 | 0.00 | 0.00 | 72 | 1012.9 |
| 20260502130511 | 56 | 228 | 0.0 | 0.0 | 0.00 | 0.00 | 0.00 | 73 | 1012.8 |
| 20260502130500 | 56 | 228 | 0.0 | 0.0 | 0.00 | 0.00 | 0.00 | 73 | 1012.8 |
| 20260502130129 | 56 | 228 | 0.0 | 0.0 | 0.00 | 0.00 | 0.00 | 73 | 1012.8 |
| 20260502123814 | 56 | 228 | 0.0 | 2.0 | 0.00 | 0.00 | 0.00 | 70 | 1012.7 |
| 20260502123805 | 57 | 228 | 0.0 | 2.0 | 0.00 | 0.00 | 0.00 | 70 | 1012.8 |
| 20260502123753 | 57 | 228 | 0.0 | 2.0 | 0.00 | 0.00 | 0.00 | 70 | 1012.8 |
| 20260502123522 | 57 | 202 | 0.0 | 2.0 | 0.00 | 0.00 | 0.00 | 70 | 1012.8 |
| 20260502122932 | 57 | 188 | 1.0 | 2.0 | 0.00 | 0.00 | 0.00 | 69 | 1012.8 |
| 20260502122833 | 57 | 200 | 0.0 | 2.0 | 0.00 | 0.00 | 0.00 | 69 | 1012.8 |
| 20260502122739 | 57 | 229 | 0.0 | 2.0 | 0.00 | 0.00 | 0.00 | 69 | 1012.8 |
| 20260502122631 | 57 | 257 | 0.0 | 2.0 | 0.00 | 0.00 | 0.00 | 68 | 1012.8 |
| 20260502122601 | 57 | 257 | 0.0 | 2.0 | 0.00 | 0.00 | 0.00 | 68 | 1012.8 |
| 20260502122550 | 57 | 257 | 1.0 | 2.0 | 0.00 | 0.00 | 0.00 | 68 | 1012.8 |
| 20260502122238 | 57 | 256 | 1.0 | 3.0 | 0.00 | 0.00 | 0.00 | 68 | 1012.8 |
| 20260502122130 | 57 | 257 | 1.0 | 3.0 | 0.00 | 0.00 | 0.00 | 68 | 1012.8 |
| 20260502122030 | 57 | 259 | 1.0 | 3.0 | 0.00 | 0.00 | 0.00 | 68 | 1012.8 |
| 20260502121930 | 57 | 261 | 1.0 | 3.0 | 0.00 | 0.00 | 0.00 | 68 | 1012.8 |
| 20260502121830 | 57 | 260 | 0.0 | 3.0 | 0.00 | 0.00 | 0.00 | 68 | 1012.8 |
| 20260502121734 | 57 | 288 | 0.0 | 3.0 | 0.00 | 0.00 | 0.00 | 68 | 1012.8 |
| 20260502121631 | 57 | 288 | 0.0 | 3.0 | 0.00 | 0.00 | 0.00 | 68 | 1012.8 |
| 20260502121532 | 57 | 288 | 1.0 | 3.0 | 0.00 | 0.00 | 0.00 | 68 | 1012.8 |
| 20260502121506 | 57 | 288 | 2.0 | 3.0 | 0.00 | 0.00 | 0.00 | 68 | 1012.8 |
| 20260502121454 | 57 | 259 | 1.0 | 3.0 | 0.00 | 0.00 | 0.00 | 68 | 1012.8 |
| 20260502121130 | 57 | 265 | 1.0 | 2.0 | 0.00 | 0.00 | 0.00 | 68 | 1012.8 |
| 20260502121100 | 57 | 267 | 0.0 | 2.0 | 0.00 | 0.00 | 0.00 | 69 | 1012.8 |
| 20260502121048 | 57 | 229 | 0.0 | 2.0 | 0.00 | 0.00 | 0.00 | 69 | 1012.8 |
| 20260502121038 | 57 | 221 | 1.0 | 2.0 | 0.00 | 0.00 | 0.00 | 68 | 1012.8 |
| 20260502120753 | 57 | 253 | 1.0 | 2.0 | 0.00 | 0.00 | 0.00 | 68 | 1012.7 |
| 20260502120516 | 57 | 263 | 0.0 | 0.0 | 0.00 | 0.00 | 0.00 | 68 | 1012.7 |
| 20260502120505 | 57 | 263 | 0.0 | 1.0 | 0.00 | 0.00 | 0.00 | 68 | 1012.7 |
| 20260502120223 | 57 | 263 | 0.0 | 1.0 | 0.00 | 0.00 | 0.00 | 68 | 1012.7 |
| 20260502115901 | 57 | 263 | 0.0 | 1.0 | 0.00 | 0.00 | 0.00 | 69 | 1012.7 |
| 20260502115806 | 57 | 263 | 0.0 | 1.0 | 0.00 | 0.00 | 0.00 | 68 | 1012.8 |
| 20260502115731 | 57 | 263 | 0.0 | 1.0 | 0.00 | 0.00 | 0.00 | 68 | 1012.7 |
| 20260502115719 | 58 | 263 | 0.0 | 1.0 | 0.00 | 0.00 | 0.00 | 68 | 1012.7 |
| 20260502115402 | 58 | 263 | 0.0 | 1.0 | 0.00 | 0.00 | 0.00 | 68 | 1012.7 |
| 20260502115305 | 58 | 263 | 0.0 | 2.0 | 0.00 | 0.00 | 0.00 | 68 | 1012.7 |
| 20260502115202 | 58 | 263 | 0.0 | 2.0 | 0.00 | 0.00 | 0.00 | 68 | 1012.7 |
| 20260502115126 | 58 | 263 | 0.0 | 2.0 | 0.00 | 0.00 | 0.00 | 68 | 1012.7 |
| 20260502115114 | 58 | 262 | 0.0 | 2.0 | 0.00 | 0.00 | 0.00 | 68 | 1012.7 |
| 20260502114756 | 58 | 262 | 0.0 | 2.0 | 0.00 | 0.00 | 0.00 | 67 | 1012.8 |
| 20260502114655 | 58 | 261 | 0.0 | 2.0 | 0.00 | 0.00 | 0.00 | 67 | 1012.8 |
| 20260502114554 | 58 | 261 | 1.0 | 2.0 | 0.00 | 0.00 | 0.00 | 67 | 1012.8 |
| 20260502114454 | 58 | 265 | 1.0 | 2.0 | 0.00 | 0.00 | 0.00 | 67 | 1012.7 |
| 20260502114245 | 58 | 259 | 1.0 | 2.0 | 0.00 | 0.00 | 0.00 | 67 | 1012.8 |
| 20260502114142 | 58 | 254 | 0.0 | 2.0 | 0.00 | 0.00 | 0.00 | 67 | 1012.8 |
| 20260502114043 | 58 | 259 | 0.0 | 0.0 | 0.00 | 0.00 | 0.00 | 67 | 1012.8 |
| 20260502113940 | 58 | 259 | 0.0 | 0.0 | 0.00 | 0.00 | 0.00 | 67 | 1012.8 |
| 20260502113840 | 58 | 259 | 0.0 | 0.0 | 0.00 | 0.00 | 0.00 | 67 | 1012.8 |
| 20260502113735 | 58 | 259 | 0.0 | 0.0 | 0.00 | 0.00 | 0.00 | 67 | 1012.8 |
| 20260502113634 | 58 | 259 | 0.0 | 0.0 | 0.00 | 0.00 | 0.00 | 67 | 1012.8 |
| 20260502113530 | 58 | 259 | 0.0 | 2.0 | 0.00 | 0.00 | 0.00 | 67 | 1012.8 |
| 20260502113432 | 58 | 259 | 0.0 | 2.0 | 0.00 | 0.00 | 0.00 | 67 | 1012.8 |
| 20260502113329 | 58 | 259 | 0.0 | 2.0 | 0.00 | 0.00 | 0.00 | 67 | 1012.8 |
| 20260502113231 | 58 | 259 | 0.0 | 2.0 | 0.00 | 0.00 | 0.00 | 67 | 1012.8 |
| 20260502113131 | 58 | 259 | 0.0 | 2.0 | 0.00 | 0.00 | 0.00 | 67 | 1012.8 |
| 20260502113037 | 58 | 259 | 0.0 | 2.0 | 0.00 | 0.00 | 0.00 | 67 | 1012.8 |
| 20260502112930 | 58 | 259 | 0.0 | 2.0 | 0.00 | 0.00 | 0.00 | 67 | 1012.8 |
| 20260502112830 | 58 | 259 | 0.0 | 2.0 | 0.00 | 0.00 | 0.00 | 67 | 1012.7 |
| 20260502112730 | 58 | 259 | 0.0 | 2.0 | 0.00 | 0.00 | 0.00 | 67 | 1012.8 |
| 20260502112630 | 58 | 259 | 0.0 | 2.0 | 0.00 | 0.00 | 0.00 | 67 | 1012.7 |
| 20260502112603 | 58 | 257 | 0.0 | 1.0 | 0.00 | 0.00 | 0.00 | 67 | 1012.8 |
| 20260502112551 | 58 | 259 | 0.0 | 0.0 | 0.00 | 0.00 | 0.00 | 66 | 1012.7 |
| 20260502112230 | 58 | 259 | 0.0 | 0.0 | 0.00 | 0.00 | 0.00 | 67 | 1012.7 |
| 20260502112129 | 58 | 259 | 0.0 | 0.0 | 0.00 | 0.00 | 0.00 | 66 | 1012.7 |
| 20260502112030 | 58 | 259 | 0.0 | 0.0 | 0.00 | 0.00 | 0.00 | 66 | 1012.8 |
| 20260502111929 | 58 | 259 | 0.0 | 0.0 | 0.00 | 0.00 | 0.00 | 66 | 1012.7 |
| 20260502111831 | 58 | 259 | 0.0 | 0.0 | 0.00 | 0.00 | 0.00 | 66 | 1012.8 |
| 20260502111729 | 58 | 259 | 0.0 | 0.0 | 0.00 | 0.00 | 0.00 | 66 | 1012.8 |
| 20260502111630 | 58 | 259 | 0.0 | 0.0 | 0.00 | 0.00 | 0.00 | 66 | 1012.7 |
| 20260502111540 | 58 | 259 | 0.0 | 0.0 | 0.00 | 0.00 | 0.00 | 66 | 1012.8 |
| 20260502111529 | 58 | 259 | 0.0 | 0.0 | 0.00 | 0.00 | 0.00 | 66 | 1012.8 |
| 20260502111210 | 58 | 259 | 0.0 | 0.0 | 0.00 | 0.00 | 0.00 | 66 | 1012.8 |
| 20260502111105 | 58 | 259 | 0.0 | 0.0 | 0.00 | 0.00 | 0.00 | 67 | 1012.7 |
| 20260502111004 | 58 | 259 | 0.0 | 0.0 | 0.00 | 0.00 | 0.00 | 67 | 1012.8 |
| 20260502110902 | 58 | 259 | 0.0 | 0.0 | 0.00 | 0.00 | 0.00 | 67 | 1012.8 |
| 20260502110806 | 58 | 259 | 0.0 | 0.0 | 0.00 | 0.00 | 0.00 | 67 | 1012.8 |
| 20260502110712 | 58 | 259 | 0.0 | 0.0 | 0.00 | 0.00 | 0.00 | 66 | 1012.7 |
| 20260502110604 | 58 | 259 | 0.0 | 0.0 | 0.00 | 0.00 | 0.00 | 66 | 1012.8 |
| 20260502110501 | 58 | 259 | 0.0 | 0.0 | 0.00 | 0.00 | 0.00 | 66 | 1012.8 |
| 20260502110403 | 58 | 259 | 0.0 | 0.0 | 0.00 | 0.00 | 0.00 | 66 | 1012.7 |
| 20260502110303 | 58 | 259 | 0.0 | 0.0 | 0.00 | 0.00 | 0.00 | 66 | 1012.7 |
| 20260502110211 | 58 | 259 | 0.0 | 0.0 | 0.00 | 0.00 | 0.00 | 66 | 1012.7 |
| 20260502110104 | 58 | 259 | 0.0 | 0.0 | 0.00 | 0.00 | 0.00 | 66 | 1012.7 |
| 20260502110035 | 58 | 259 | 0.0 | 0.0 | 0.00 | 0.00 | 0.00 | 66 | 1012.7 |
| 20260502110023 | 58 | 259 | 0.0 | 0.0 | 0.00 | 0.00 | 0.00 | 66 | 1012.6 |
| 20260502105707 | 58 | 259 | 0.0 | 0.0 | 0.00 | 0.00 | 0.00 | 66 | 1012.6 |
| 20260502105602 | 58 | 259 | 0.0 | 0.0 | 0.00 | 0.00 | 0.00 | 66 | 1012.6 |
| 20260502105520 | 58 | 259 | 0.0 | 0.0 | 0.00 | 0.00 | 0.00 | 66 | 1012.6 |
| 20260502105509 | 58 | 259 | 0.0 | 0.0 | 0.00 | 0.00 | 0.00 | 66 | 1012.6 |
| 20260502105458 | 58 | 259 | 0.0 | 0.0 | 0.00 | 0.00 | 0.00 | 66 | 1012.6 |
| 20260502105219 | 58 | 259 | 0.0 | 0.0 | 0.00 | 0.00 | 0.00 | 66 | 1012.6 |
| 20260502104902 | 58 | 259 | 0.0 | 0.0 | 0.00 | 0.00 | 0.00 | 66 | 1012.6 |
| 20260502104843 | 58 | 259 | 0.0 | 0.0 | 0.00 | 0.00 | 0.00 | 66 | 1012.6 |
| 20260502104832 | 58 | 259 | 0.0 | 0.0 | 0.00 | 0.00 | 0.00 | 66 | 1012.6 |
| 20260502104503 | 58 | 259 | 0.0 | 0.0 | 0.00 | 0.00 | 0.00 | 66 | 1012.5 |
| 20260502104404 | 58 | 259 | 0.0 | 0.0 | 0.00 | 0.00 | 0.00 | 66 | 1012.5 |
| 20260502104304 | 58 | 259 | 0.0 | 0.0 | 0.00 | 0.00 | 0.00 | 66 | 1012.6 |
| 20260502104205 | 58 | 259 | 0.0 | 0.0 | 0.00 | 0.00 | 0.00 | 66 | 1012.6 |
| 20260502104102 | 58 | 259 | 0.0 | 0.0 | 0.00 | 0.00 | 0.00 | 66 | 1012.6 |
| 20260502104005 | 58 | 259 | 0.0 | 0.0 | 0.00 | 0.00 | 0.00 | 65 | 1012.6 |
| 20260502103904 | 58 | 259 | 0.0 | 0.0 | 0.00 | 0.00 | 0.00 | 65 | 1012.6 |
| 20260502103840 | 58 | 259 | 0.0 | 0.0 | 0.00 | 0.00 | 0.00 | 65 | 1012.6 |
| 20260502103831 | 58 | 259 | 0.0 | 0.0 | 0.00 | 0.00 | 0.00 | 65 | 1012.6 |
| 20260502103503 | 59 | 259 | 0.0 | 0.0 | 0.00 | 0.00 | 0.00 | 65 | 1012.6 |
| 20260502103404 | 59 | 259 | 0.0 | 0.0 | 0.00 | 0.00 | 0.00 | 64 | 1012.6 |
| 20260502103301 | 59 | 259 | 0.0 | 0.0 | 0.00 | 0.00 | 0.00 | 64 | 1012.6 |
| 20260502103205 | 59 | 259 | 0.0 | 0.0 | 0.00 | 0.00 | 0.00 | 64 | 1012.6 |
| 20260502103102 | 59 | 259 | 0.0 | 0.0 | 0.00 | 0.00 | 0.00 | 64 | 1012.6 |
| 20260502103007 | 59 | 259 | 0.0 | 0.0 | 0.00 | 0.00 | 0.00 | 64 | 1012.6 |
| 20260502102902 | 59 | 259 | 0.0 | 0.0 | 0.00 | 0.00 | 0.00 | 64 | 1012.6 |
| 20260502102801 | 59 | 259 | 0.0 | 0.0 | 0.00 | 0.00 | 0.00 | 64 | 1012.6 |
| 20260502102702 | 59 | 259 | 0.0 | 0.0 | 0.00 | 0.00 | 0.00 | 63 | 1012.6 |
| 20260502102602 | 59 | 259 | 0.0 | 0.0 | 0.00 | 0.00 | 0.00 | 63 | 1012.6 |
| 20260502102504 | 59 | 259 | 0.0 | 0.0 | 0.00 | 0.00 | 0.00 | 63 | 1012.6 |
| 20260502102402 | 59 | 259 | 0.0 | 0.0 | 0.00 | 0.00 | 0.00 | 63 | 1012.6 |
| 20260502102300 | 59 | 259 | 0.0 | 0.0 | 0.00 | 0.00 | 0.00 | 62 | 1012.5 |
| 20260502102245 | 59 | 259 | 0.0 | 0.0 | 0.00 | 0.00 | 0.00 | 62 | 1012.5 |
| 20260502102221 | 59 | 259 | 0.0 | 0.0 | 0.00 | 0.00 | 0.00 | 62 | 1012.5 |
| 20260502101807 | 59 | 259 | 0.0 | 0.0 | 0.00 | 0.00 | 0.00 | 62 | 1012.5 |
| 20260502101732 | 59 | 259 | 0.0 | 2.0 | 0.00 | 0.00 | 0.00 | 62 | 1012.5 |
| 20260502101713 | 59 | 259 | 0.0 | 2.0 | 0.00 | 0.00 | 0.00 | 62 | 1012.5 |
| 20260502101704 | 60 | 259 | 0.0 | 2.0 | 0.00 | 0.00 | 0.00 | 62 | 1012.5 |
| 20260502101643 | 60 | 259 | 0.0 | 2.0 | 0.00 | 0.00 | 0.00 | 62 | 1012.5 |
| 20260502101358 | 60 | 259 | 0.0 | 2.0 | 0.00 | 0.00 | 0.00 | 62 | 1012.6 |
| 20260502100910 | 60 | 264 | 1.0 | 2.0 | 0.00 | 0.00 | 0.00 | 62 | 1012.5 |
| 20260502100842 | 60 | 263 | 2.0 | 2.0 | 0.00 | 0.00 | 0.00 | 62 | 1012.5 |
| 20260502100304 | 60 | 261 | 1.0 | 3.0 | 0.00 | 0.00 | 0.00 | 62 | 1012.6 |
| 20260502100201 | 60 | 257 | 1.0 | 3.0 | 0.00 | 0.00 | 0.00 | 62 | 1012.6 |
| 20260502091411 | 60 | 236 | 0.0 | 4.0 | 0.00 | 0.00 | 0.00 | 63 | 1012.4 |
| 20260502091042 | 60 | 236 | 1.0 | 4.0 | 0.00 | 0.00 | 0.00 | 62 | 1012.4 |
| 20260502090936 | 60 | 236 | 1.0 | 4.0 | 0.00 | 0.00 | 0.00 | 62 | 1012.4 |
| 20260502090835 | 60 | 253 | 2.0 | 4.0 | 0.00 | 0.00 | 0.00 | 62 | 1012.4 |
| 20260502090736 | 60 | 255 | 2.0 | 4.0 | 0.00 | 0.00 | 0.00 | 62 | 1012.4 |
| 20260502090636 | 60 | 269 | 2.0 | 4.0 | 0.00 | 0.00 | 0.00 | 62 | 1012.4 |
| 20260502090533 | 60 | 265 | 2.0 | 4.0 | 0.00 | 0.00 | 0.00 | 63 | 1012.4 |
| 20260502090434 | 60 | 258 | 0.0 | 3.0 | 0.00 | 0.00 | 0.00 | 63 | 1012.4 |
| 20260502090330 | 60 | 258 | 0.0 | 3.0 | 0.00 | 0.00 | 0.00 | 63 | 1012.5 |
| 20260502090231 | 60 | 200 | 0.0 | 4.0 | 0.00 | 0.00 | 0.00 | 63 | 1012.5 |
| 20260502090131 | 60 | 200 | 1.0 | 4.0 | 0.00 | 0.00 | 0.00 | 63 | 1012.5 |
| 20260502071502 | 61 | 253 | 0.0 | 2.0 | 0.00 | 0.00 | 0.00 | 64 | 1012.5 |
| 20260502071403 | 61 | 254 | 0.0 | 2.0 | 0.00 | 0.00 | 0.00 | 64 | 1012.5 |
| 20260502071303 | 61 | 254 | 1.0 | 2.0 | 0.00 | 0.00 | 0.00 | 64 | 1012.5 |
| 20260502071244 | 61 | 257 | 1.0 | 2.0 | 0.00 | 0.00 | 0.00 | 63 | 1012.5 |
| 20260502071235 | 61 | 258 | 1.0 | 2.0 | 0.00 | 0.00 | 0.00 | 63 | 1012.5 |
| 20260502070904 | 61 | 261 | 1.0 | 2.0 | 0.00 | 0.00 | 0.00 | 63 | 1012.5 |
| 20260502070800 | 61 | 254 | 0.0 | 2.0 | 0.00 | 0.00 | 0.00 | 63 | 1012.5 |
| 20260502070704 | 61 | 234 | 0.0 | 2.0 | 0.00 | 0.00 | 0.00 | 63 | 1012.5 |
| 20260502070621 | 61 | 230 | 0.0 | 2.0 | 0.00 | 0.00 | 0.00 | 63 | 1012.5 |
| 20260502070601 | 62 | 230 | 0.0 | 2.0 | 0.00 | 0.00 | 0.00 | 62 | 1012.5 |
| 20260502070549 | 62 | 239 | 0.0 | 2.0 | 0.00 | 0.00 | 0.00 | 62 | 1012.5 |
| 20260502070319 | 62 | 226 | 0.0 | 3.0 | 0.00 | 0.00 | 0.00 | 62 | 1012.5 |
| 20260502070309 | 62 | 226 | 0.0 | 3.0 | 0.00 | 0.00 | 0.00 | 62 | 1012.5 |
| 20260502070030 | 62 | 240 | 1.0 | 3.0 | 0.00 | 0.00 | 0.00 | 62 | 1012.5 |
| 20260502065704 | 62 | 253 | 0.0 | 3.0 | 0.00 | 0.00 | 0.00 | 62 | 1012.5 |
| 20260502065602 | 62 | 240 | 1.0 | 3.0 | 0.00 | 0.00 | 0.00 | 62 | 1012.5 |
| 20260502065503 | 62 | 221 | 1.0 | 3.0 | 0.00 | 0.00 | 0.00 | 62 | 1012.5 |
| 20260502065403 | 62 | 221 | 2.0 | 3.0 | 0.00 | 0.00 | 0.00 | 62 | 1012.5 |
| 20260502065306 | 62 | 250 | 1.0 | 3.0 | 0.00 | 0.00 | 0.00 | 62 | 1012.5 |
| 20260502065201 | 62 | 244 | 0.0 | 2.0 | 0.00 | 0.00 | 0.00 | 62 | 1012.5 |
| 20260502065103 | 62 | 278 | 0.0 | 2.0 | 0.00 | 0.00 | 0.00 | 62 | 1012.5 |
| 20260502065001 | 62 | 278 | 0.0 | 2.0 | 0.00 | 0.00 | 0.00 | 62 | 1012.5 |
| 20260502064905 | 62 | 278 | 0.0 | 3.0 | 0.00 | 0.00 | 0.00 | 62 | 1012.5 |
| 20260502064803 | 62 | 275 | 0.0 | 3.0 | 0.00 | 0.00 | 0.00 | 62 | 1012.5 |
| 20260502064702 | 62 | 242 | 0.0 | 3.0 | 0.00 | 0.00 | 0.00 | 62 | 1012.5 |
| 20260502064600 | 62 | 251 | 0.0 | 3.0 | 0.00 | 0.00 | 0.00 | 62 | 1012.5 |
| 20260502064502 | 62 | 257 | 0.0 | 3.0 | 0.00 | 0.00 | 0.00 | 62 | 1012.5 |
| 20260502064426 | 62 | 259 | 1.0 | 3.0 | 0.00 | 0.00 | 0.00 | 62 | 1012.5 |
| 20260502064417 | 62 | 263 | 1.0 | 3.0 | 0.00 | 0.00 | 0.00 | 62 | 1012.6 |
| 20260502064109 | 62 | 264 | 0.0 | 3.0 | 0.00 | 0.00 | 0.00 | 62 | 1012.5 |
| 20260502064045 | 62 | 255 | 0.0 | 3.0 | 0.00 | 0.00 | 0.00 | 62 | 1012.5 |
| 20260502064034 | 62 | 252 | 0.0 | 3.0 | 0.00 | 0.00 | 0.00 | 62 | 1012.5 |
| 20260502063806 | 62 | 252 | 0.0 | 3.0 | 0.00 | 0.00 | 0.00 | 62 | 1012.5 |
| 20260502063455 | 62 | 252 | 0.0 | 3.0 | 0.00 | 0.00 | 0.00 | 61 | 1012.5 |
| 20260502063445 | 62 | 252 | 1.0 | 3.0 | 0.00 | 0.00 | 0.00 | 61 | 1012.5 |
| 20260502063434 | 62 | 252 | 2.0 | 3.0 | 0.00 | 0.00 | 0.00 | 61 | 1012.5 |
| 20260502063420 | 62 | 257 | 2.0 | 3.0 | 0.00 | 0.00 | 0.00 | 61 | 1012.5 |
| 20260502062830 | 62 | 252 | 0.0 | 3.0 | 0.00 | 0.00 | 0.00 | 62 | 1012.5 |
| 20260502062729 | 62 | 256 | 0.0 | 0.0 | 0.00 | 0.00 | 0.00 | 62 | 1012.5 |
| 20260502062646 | 62 | 256 | 0.0 | 0.0 | 0.00 | 0.00 | 0.00 | 62 | 1012.5 |
| 20260502062634 | 61 | 256 | 0.0 | 0.0 | 0.00 | 0.00 | 0.00 | 62 | 1012.5 |
| 20260502062616 | 61 | 256 | 0.0 | 0.0 | 0.00 | 0.00 | 0.00 | 62 | 1012.5 |
| 20260502062606 | 61 | 256 | 0.0 | 0.0 | 0.00 | 0.00 | 0.00 | 62 | 1012.5 |
| 20260502062031 | 61 | 256 | 0.0 | 0.0 | 0.00 | 0.00 | 0.00 | 63 | 1012.4 |
| 20260502061929 | 61 | 256 | 0.0 | 0.0 | 0.00 | 0.00 | 0.00 | 63 | 1012.5 |
| 20260502061830 | 61 | 256 | 0.0 | 0.0 | 0.00 | 0.00 | 0.00 | 63 | 1012.5 |
| 20260502061729 | 61 | 256 | 0.0 | 0.0 | 0.00 | 0.00 | 0.00 | 63 | 1012.5 |
| 20260502061632 | 61 | 256 | 0.0 | 0.0 | 0.00 | 0.00 | 0.00 | 63 | 1012.4 |
| 20260502061530 | 61 | 256 | 0.0 | 0.0 | 0.00 | 0.00 | 0.00 | 62 | 1012.5 |
| 20260502061429 | 61 | 256 | 0.0 | 0.0 | 0.00 | 0.00 | 0.00 | 62 | 1012.4 |
| 20260502061328 | 61 | 256 | 0.0 | 0.0 | 0.00 | 0.00 | 0.00 | 62 | 1012.5 |
| 20260502061228 | 61 | 256 | 0.0 | 0.0 | 0.00 | 0.00 | 0.00 | 62 | 1012.4 |
| 20260502061140 | 62 | 256 | 0.0 | 0.0 | 0.00 | 0.00 | 0.00 | 62 | 1012.4 |
| 20260502061127 | 62 | 256 | 0.0 | 0.0 | 0.00 | 0.00 | 0.00 | 62 | 1012.4 |
| 20260502061106 | 62 | 256 | 0.0 | 0.0 | 0.00 | 0.00 | 0.00 | 62 | 1012.4 |
| 20260502061052 | 62 | 256 | 0.0 | 0.0 | 0.00 | 0.00 | 0.00 | 62 | 1012.4 |
| 20260502060826 | 62 | 256 | 0.0 | 0.0 | 0.00 | 0.00 | 0.00 | 61 | 1012.4 |
| 20260502060804 | 62 | 256 | 0.0 | 0.0 | 0.00 | 0.00 | 0.00 | 61 | 1012.4 |
| 20260502060538 | 62 | 256 | 0.0 | 0.0 | 0.00 | 0.00 | 0.00 | 61 | 1012.3 |
| 20260502060311 | 62 | 256 | 0.0 | 0.0 | 0.00 | 0.00 | 0.00 | 61 | 1012.3 |
| 20260502060248 | 62 | 256 | 0.0 | 0.0 | 0.00 | 0.00 | 0.00 | 61 | 1012.3 |
| 20260502060239 | 62 | 256 | 0.0 | 0.0 | 0.00 | 0.00 | 0.00 | 61 | 1012.3 |
| 20260502060011 | 63 | 256 | 0.0 | 0.0 | 0.00 | 0.00 | 0.00 | 61 | 1012.3 |
| 20260502055743 | 63 | 256 | 0.0 | 2.0 | 0.00 | 0.00 | 0.00 | 60 | 1012.3 |
| 20260502055159 | 63 | 256 | 0.0 | 4.0 | 0.00 | 0.00 | 0.00 | 59 | 1012.4 |
| 20260502055058 | 63 | 256 | 0.0 | 4.0 | 0.00 | 0.00 | 0.00 | 59 | 1012.4 |
| 20260502055009 | 63 | 256 | 0.0 | 4.0 | 0.00 | 0.00 | 0.00 | 59 | 1012.4 |
| 20260502054955 | 63 | 256 | 0.0 | 4.0 | 0.00 | 0.00 | 0.00 | 59 | 1012.4 |
| 20260502054944 | 63 | 256 | 0.0 | 4.0 | 0.00 | 0.00 | 0.00 | 58 | 1012.4 |
| 20260502054714 | 63 | 256 | 3.0 | 4.0 | 0.00 | 0.00 | 0.00 | 58 | 1012.3 |
| 20260502054403 | 63 | 265 | 0.0 | 4.0 | 0.00 | 0.00 | 0.00 | 59 | 1012.3 |
| 20260502054351 | 62 | 257 | 0.0 | 0.0 | 0.00 | 0.00 | 0.00 | 59 | 1012.3 |
| 20260502054030 | 62 | 257 | 0.0 | 0.0 | 0.00 | 0.00 | 0.00 | 59 | 1012.4 |
| 20260502053930 | 62 | 257 | 0.0 | 1.0 | 0.00 | 0.00 | 0.00 | 60 | 1012.4 |
| 20260502053831 | 62 | 257 | 0.0 | 1.0 | 0.00 | 0.00 | 0.00 | 60 | 1012.5 |
| 20260502053730 | 62 | 257 | 0.0 | 1.0 | 0.00 | 0.00 | 0.00 | 60 | 1012.5 |
| 20260502053632 | 62 | 257 | 0.0 | 1.0 | 0.00 | 0.00 | 0.00 | 60 | 1012.4 |
| 20260502053531 | 62 | 257 | 0.0 | 1.0 | 0.00 | 0.00 | 0.00 | 61 | 1012.4 |
| 20260502053430 | 62 | 257 | 0.0 | 1.0 | 0.00 | 0.00 | 0.00 | 61 | 1012.4 |
| 20260502053333 | 63 | 257 | 0.0 | 1.0 | 0.00 | 0.00 | 0.00 | 61 | 1012.4 |
| 20260502053230 | 63 | 257 | 0.0 | 1.0 | 0.00 | 0.00 | 0.00 | 61 | 1012.4 |
| 20260502053129 | 63 | 257 | 0.0 | 2.0 | 0.00 | 0.00 | 0.00 | 61 | 1012.4 |
| 20260502053031 | 63 | 257 | 0.0 | 2.0 | 0.00 | 0.00 | 0.00 | 61 | 1012.4 |
| 20260502052930 | 63 | 234 | 0.0 | 2.0 | 0.00 | 0.00 | 0.00 | 61 | 1012.4 |
| 20260502052829 | 63 | 192 | 0.0 | 2.0 | 0.00 | 0.00 | 0.00 | 61 | 1012.4 |
| 20260502052729 | 63 | 192 | 0.0 | 2.0 | 0.00 | 0.00 | 0.00 | 61 | 1012.4 |
| 20260502052628 | 63 | 192 | 0.0 | 2.0 | 0.00 | 0.00 | 0.00 | 61 | 1012.4 |
| 20260502052527 | 63 | 192 | 0.0 | 2.0 | 0.00 | 0.00 | 0.00 | 61 | 1012.4 |
| 20260502052428 | 63 | 192 | 0.0 | 2.0 | 0.00 | 0.00 | 0.00 | 61 | 1012.4 |
| 20260502052354 | 63 | 192 | 1.0 | 2.0 | 0.00 | 0.00 | 0.00 | 60 | 1012.3 |
| 20260502052345 | 63 | 194 | 1.0 | 2.0 | 0.00 | 0.00 | 0.00 | 60 | 1012.3 |
| 20260502052020 | 63 | 202 | 0.0 | 2.0 | 0.00 | 0.00 | 0.00 | 60 | 1012.3 |
| 20260502051921 | 63 | 186 | 0.0 | 2.0 | 0.00 | 0.00 | 0.00 | 61 | 1012.4 |
| 20260502051819 | 63 | 186 | 0.0 | 2.0 | 0.00 | 0.00 | 0.00 | 60 | 1012.4 |
| 20260502051717 | 63 | 186 | 0.0 | 4.0 | 0.00 | 0.00 | 0.00 | 60 | 1012.4 |
| 20260502051603 | 63 | 186 | 0.0 | 4.0 | 0.00 | 0.00 | 0.00 | 60 | 1012.4 |
| 20260502051543 | 63 | 186 | 1.0 | 4.0 | 0.00 | 0.00 | 0.00 | 60 | 1012.4 |
| 20260502051522 | 63 | 186 | 1.0 | 4.0 | 0.00 | 0.00 | 0.00 | 60 | 1012.4 |
| 20260502051203 | 63 | 221 | 1.0 | 4.0 | 0.00 | 0.00 | 0.00 | 61 | 1012.4 |
| 20260502051143 | 64 | 213 | 1.0 | 4.0 | 0.00 | 0.00 | 0.00 | 61 | 1012.3 |
| 20260502051135 | 64 | 198 | 2.0 | 4.0 | 0.00 | 0.00 | 0.00 | 61 | 1012.3 |
| 20260502050802 | 64 | 159 | 1.0 | 3.0 | 0.00 | 0.00 | 0.00 | 61 | 1012.3 |
| 20260502050702 | 64 | 163 | 0.0 | 3.0 | 0.00 | 0.00 | 0.00 | 61 | 1012.3 |
| 20260502050603 | 64 | 203 | 0.0 | 2.0 | 0.00 | 0.00 | 0.00 | 61 | 1012.3 |
| 20260502050503 | 64 | 286 | 0.0 | 2.0 | 0.00 | 0.00 | 0.00 | 60 | 1012.3 |
| 20260502050402 | 64 | 285 | 0.0 | 2.0 | 0.00 | 0.00 | 0.00 | 60 | 1012.3 |
| 20260502050336 | 64 | 284 | 0.0 | 2.0 | 0.00 | 0.00 | 0.00 | 60 | 1012.3 |
| 20260502050327 | 64 | 284 | 1.0 | 2.0 | 0.00 | 0.00 | 0.00 | 60 | 1012.3 |
| 20260502050315 | 64 | 282 | 1.0 | 2.0 | 0.00 | 0.00 | 0.00 | 60 | 1012.2 |
| 20260502050303 | 64 | 275 | 0.0 | 2.0 | 0.00 | 0.00 | 0.00 | 60 | 1012.2 |
| 20260502045701 | 65 | 235 | 1.0 | 2.0 | 0.00 | 0.00 | 0.00 | 60 | 1012.4 |
| 20260502045606 | 65 | 235 | 1.0 | 2.0 | 0.00 | 0.00 | 0.00 | 60 | 1012.3 |
| 20260502045502 | 65 | 225 | 1.0 | 2.0 | 0.00 | 0.00 | 0.00 | 60 | 1012.3 |
| 20260502045403 | 65 | 201 | 1.0 | 1.0 | 0.00 | 0.00 | 0.00 | 60 | 1012.3 |
| 20260502045301 | 65 | 196 | 1.0 | 1.0 | 0.00 | 0.00 | 0.00 | 60 | 1012.4 |
| 20260502045202 | 65 | 175 | 0.0 | 1.0 | 0.00 | 0.00 | 0.00 | 60 | 1012.3 |
| 20260502045101 | 65 | 157 | 0.0 | 1.0 | 0.00 | 0.00 | 0.00 | 60 | 1012.3 |
| 20260502045003 | 65 | 183 | 0.0 | 2.0 | 0.00 | 0.00 | 0.00 | 60 | 1012.3 |
| 20260502044904 | 65 | 194 | 0.0 | 2.0 | 0.00 | 0.00 | 0.00 | 60 | 1012.3 |
| 20260502044802 | 65 | 194 | 0.0 | 2.0 | 0.00 | 0.00 | 0.00 | 60 | 1012.3 |
| 20260502044705 | 65 | 194 | 0.0 | 2.0 | 0.00 | 0.00 | 0.00 | 59 | 1012.2 |
| 20260502044603 | 65 | 194 | 0.0 | 2.0 | 0.00 | 0.00 | 0.00 | 59 | 1012.2 |
| 20260502044501 | 66 | 194 | 0.0 | 2.0 | 0.00 | 0.00 | 0.00 | 59 | 1012.2 |
| 20260502044433 | 66 | 194 | 0.0 | 2.0 | 0.00 | 0.00 | 0.00 | 59 | 1012.2 |
| 20260502044420 | 66 | 194 | 1.0 | 2.0 | 0.00 | 0.00 | 0.00 | 59 | 1012.2 |
| 20260502044142 | 66 | 194 | 0.0 | 2.0 | 0.00 | 0.00 | 0.00 | 59 | 1012.2 |
| 20260502044133 | 66 | 192 | 0.0 | 1.0 | 0.00 | 0.00 | 0.00 | 58 | 1012.3 |
| 20260502043830 | 66 | 192 | 0.0 | 2.0 | 0.00 | 0.00 | 0.00 | 58 | 1012.2 |
| 20260502043820 | 66 | 192 | 0.0 | 2.0 | 0.00 | 0.00 | 0.00 | 58 | 1012.2 |
| 20260502043501 | 66 | 192 | 0.0 | 2.0 | 0.00 | 0.00 | 0.00 | 58 | 1012.2 |
| 20260502043358 | 66 | 192 | 0.0 | 2.0 | 0.00 | 0.00 | 0.00 | 57 | 1012.2 |
| 20260502043256 | 67 | 184 | 0.0 | 2.0 | 0.00 | 0.00 | 0.00 | 57 | 1012.2 |
| 20260502043157 | 67 | 184 | 0.0 | 2.0 | 0.00 | 0.00 | 0.00 | 57 | 1012.2 |
| 20260502043056 | 67 | 184 | 1.0 | 2.0 | 0.00 | 0.00 | 0.00 | 57 | 1012.2 |
| 20260502042957 | 67 | 186 | 1.0 | 2.0 | 0.00 | 0.00 | 0.00 | 56 | 1012.2 |
| 20260502042854 | 67 | 186 | 0.0 | 2.0 | 0.00 | 0.00 | 0.00 | 57 | 1012.2 |
| 20260502042803 | 67 | 187 | 0.0 | 1.0 | 0.00 | 0.00 | 0.00 | 56 | 1012.1 |
| 20260502042752 | 67 | 186 | 0.0 | 1.0 | 0.00 | 0.00 | 0.00 | 56 | 1012.1 |
| 20260502042440 | 67 | 163 | 1.0 | 1.0 | 0.00 | 0.00 | 0.00 | 56 | 1012.1 |
| 20260502042351 | 67 | 168 | 0.0 | 1.0 | 0.00 | 0.00 | 0.00 | 55 | 1012.1 |
| 20260502042334 | 67 | 203 | 0.0 | 2.0 | 0.00 | 0.00 | 0.00 | 55 | 1012.1 |
| 20260502042324 | 68 | 203 | 0.0 | 2.0 | 0.00 | 0.00 | 0.00 | 54 | 1012.1 |
| 20260502042311 | 68 | 203 | 0.0 | 2.0 | 0.00 | 0.00 | 0.00 | 54 | 1012.1 |
| 20260502042305 | 68 | 203 | 0.0 | 2.0 | 0.00 | 0.00 | 0.00 | 55 | 1012.1 |
| 20260502042020 | 68 | 203 | 1.0 | 2.0 | 0.00 | 0.00 | 0.00 | 54 | 1012.0 |
| 20260502042008 | 68 | 202 | 1.0 | 2.0 | 0.00 | 0.00 | 0.00 | 54 | 1012.0 |
| 20260502041738 | 68 | 207 | 1.0 | 2.0 | 0.00 | 0.00 | 0.00 | 53 | 1012.0 |
| 20260502041716 | 68 | 206 | 0.0 | 2.0 | 0.00 | 0.00 | 0.00 | 54 | 1012.0 |
| 20260502041702 | 68 | 221 | 0.0 | 1.0 | 0.00 | 0.00 | 0.00 | 53 | 1012.0 |
| 20260502041218 | 69 | 234 | 0.0 | 1.0 | 0.00 | 0.00 | 0.00 | 53 | 1011.9 |
| 20260502041156 | 69 | 234 | 0.0 | 1.0 | 0.00 | 0.00 | 0.00 | 53 | 1011.9 |
| 20260502040708 | 69 | 229 | 0.0 | 1.0 | 0.00 | 0.00 | 0.00 | 52 | 1011.9 |
| 20260502040655 | 69 | 213 | 0.0 | 1.0 | 0.00 | 0.00 | 0.00 | 52 | 1011.9 |
| 20260502040418 | 69 | 213 | 0.0 | 1.0 | 0.00 | 0.00 | 0.00 | 52 | 1011.9 |
| 20260502040408 | 69 | 213 | 0.0 | 1.0 | 0.00 | 0.00 | 0.00 | 52 | 1011.8 |
| 20260502040139 | 70 | 215 | 0.0 | 1.0 | 0.00 | 0.00 | 0.00 | 51 | 1011.8 |
| 20260502035858 | 70 | 211 | 0.0 | 1.0 | 0.00 | 0.00 | 0.00 | 52 | 1011.8 |
| 20260502035847 | 70 | 204 | 0.0 | 1.0 | 0.00 | 0.00 | 0.00 | 51 | 1011.8 |
| 20260502035615 | 70 | 205 | 1.0 | 1.0 | 0.00 | 0.00 | 0.00 | 50 | 1011.8 |
| 20260502035554 | 70 | 205 | 1.0 | 1.0 | 0.00 | 0.00 | 0.00 | 50 | 1011.9 |
| 20260502035542 | 71 | 213 | 0.0 | 1.0 | 0.00 | 0.00 | 0.00 | 50 | 1011.9 |
| 20260502035054 | 71 | 230 | 0.0 | 1.0 | 0.00 | 0.00 | 0.00 | 49 | 1011.9 |
| 20260502034752 | 71 | 241 | 0.0 | 1.0 | 0.00 | 0.00 | 0.00 | 48 | 1011.9 |
| 20260502034741 | 71 | 244 | 0.0 | 1.0 | 0.00 | 0.00 | 0.00 | 49 | 1011.8 |
| 20260502034418 | 71 | 252 | 0.0 | 1.0 | 0.00 | 0.00 | 0.00 | 48 | 1011.9 |
| 20260502034316 | 71 | 257 | 0.0 | 1.0 | 0.00 | 0.00 | 0.00 | 48 | 1011.8 |
| 20260502034214 | 71 | 257 | 0.0 | 1.0 | 0.00 | 0.00 | 0.00 | 49 | 1011.8 |
| 20260502034114 | 72 | 260 | 0.0 | 1.0 | 0.00 | 0.00 | 0.00 | 49 | 1011.8 |
| 20260502034012 | 72 | 260 | 0.0 | 1.0 | 0.00 | 0.00 | 0.00 | 49 | 1011.8 |
| 20260502033921 | 72 | 280 | 0.0 | 1.0 | 0.00 | 0.00 | 0.00 | 47 | 1011.8 |
| 20260502033812 | 72 | 310 | 0.0 | 1.0 | 0.00 | 0.00 | 0.00 | 47 | 1011.8 |
| 20260502033736 | 72 | 310 | 0.0 | 1.0 | 0.00 | 0.00 | 0.00 | 47 | 1011.8 |
| 20260502033722 | 72 | 310 | 0.0 | 1.0 | 0.00 | 0.00 | 0.00 | 47 | 1011.8 |
| 20260502033401 | 72 | 310 | 0.0 | 1.0 | 0.00 | 0.00 | 0.00 | 47 | 1011.8 |
| 20260502033302 | 73 | 310 | 0.0 | 1.0 | 0.00 | 0.00 | 0.00 | 47 | 1011.7 |
| 20260502033229 | 73 | 310 | 0.0 | 1.0 | 0.00 | 0.00 | 0.00 | 47 | 1011.7 |
| 20260502033219 | 73 | 312 | 0.0 | 0.0 | 0.00 | 0.00 | 0.00 | 46 | 1011.7 |
| 20260502032940 | 73 | 312 | 0.0 | 0.0 | 0.00 | 0.00 | 0.00 | 46 | 1011.7 |
| 20260502032919 | 73 | 312 | 0.0 | 0.0 | 0.00 | 0.00 | 0.00 | 45 | 1011.7 |
| 20260502032601 | 73 | 312 | 0.0 | 0.0 | 0.00 | 0.00 | 0.00 | 45 | 1011.7 |
| 20260502032504 | 74 | 312 | 0.0 | 0.0 | 0.00 | 0.00 | 0.00 | 45 | 1011.7 |
| 20260502032415 | 74 | 312 | 0.0 | 0.0 | 0.00 | 0.00 | 0.00 | 44 | 1011.7 |
| 20260502032332 | 74 | 312 | 0.0 | 0.0 | 0.00 | 0.00 | 0.00 | 44 | 1011.7 |
| 20260502032321 | 74 | 312 | 0.0 | 0.0 | 0.00 | 0.00 | 0.00 | 44 | 1011.7 |
| 20260502032001 | 74 | 312 | 0.0 | 0.0 | 0.00 | 0.00 | 0.00 | 43 | 1011.7 |
| 20260502031913 | 74 | 312 | 0.0 | 1.0 | 0.00 | 0.00 | 0.00 | 44 | 1011.6 |
| 20260502031800 | 74 | 312 | 0.0 | 1.0 | 0.00 | 0.00 | 0.00 | 42 | 1011.7 |
| 20260502031731 | 74 | 312 | 0.0 | 1.0 | 0.00 | 0.00 | 0.00 | 42 | 1011.6 |
| 20260502031720 | 74 | 312 | 0.0 | 1.0 | 0.00 | 0.00 | 0.00 | 43 | 1011.6 |
| 20260502031407 | 75 | 312 | 0.0 | 1.0 | 0.00 | 0.00 | 0.00 | 42 | 1011.6 |
| 20260502031313 | 75 | 312 | 0.0 | 1.0 | 0.00 | 0.00 | 0.00 | 42 | 1011.6 |
| 20260502031304 | 75 | 312 | 0.0 | 1.0 | 0.00 | 0.00 | 0.00 | 43 | 1011.6 |
| 20260502031008 | 75 | 315 | 0.0 | 1.0 | 0.00 | 0.00 | 0.00 | 42 | 1011.6 |
| 20260502030945 | 75 | 317 | 0.0 | 1.0 | 0.00 | 0.00 | 0.00 | 41 | 1011.6 |
| 20260502030632 | 76 | 317 | 0.0 | 1.0 | 0.00 | 0.00 | 0.00 | 41 | 1011.6 |
| 20260502030529 | 76 | 317 | 0.0 | 1.0 | 0.00 | 0.00 | 0.00 | 42 | 1011.5 |
| 20260502030510 | 76 | 317 | 0.0 | 1.0 | 0.00 | 0.00 | 0.00 | 40 | 1011.5 |
| 20260502030451 | 76 | 317 | 0.0 | 1.0 | 0.00 | 0.00 | 0.00 | 40 | 1011.5 |
| 20260502030129 | 76 | 317 | 0.0 | 1.0 | 0.00 | 0.00 | 0.00 | 39 | 1011.5 |
| 20260502030029 | 76 | 317 | 0.0 | 1.0 | 0.00 | 0.00 | 0.00 | 39 | 1011.5 |
| 20260502025925 | 76 | 317 | 0.0 | 1.0 | 0.00 | 0.00 | 0.00 | 39 | 1011.5 |
| 20260502025826 | 76 | 317 | 0.0 | 1.0 | 0.00 | 0.00 | 0.00 | 39 | 1011.5 |
| 20260502025724 | 76 | 317 | 0.0 | 1.0 | 0.00 | 0.00 | 0.00 | 39 | 1011.5 |
| 20260502025618 | 76 | 317 | 0.0 | 1.0 | 0.00 | 0.00 | 0.00 | 38 | 1011.5 |
| 20260502025519 | 76 | 317 | 0.0 | 1.0 | 0.00 | 0.00 | 0.00 | 38 | 1011.4 |
| 20260502025451 | 77 | 317 | 0.0 | 1.0 | 0.00 | 0.00 | 0.00 | 38 | 1011.5 |
| 20260502025429 | 77 | 317 | 0.0 | 1.0 | 0.00 | 0.00 | 0.00 | 38 | 1011.5 |
| 20260502025110 | 77 | 317 | 0.0 | 1.0 | 0.00 | 0.00 | 0.00 | 37 | 1011.5 |
| 20260502025009 | 77 | 319 | 0.0 | 1.0 | 0.00 | 0.00 | 0.00 | 37 | 1011.6 |
| 20260502024909 | 77 | 340 | 0.0 | 1.0 | 0.00 | 0.00 | 0.00 | 37 | 1011.5 |
| 20260502024810 | 77 | 340 | 0.0 | 1.0 | 0.00 | 0.00 | 0.00 | 37 | 1011.5 |
| 20260502024706 | 77 | 340 | 0.0 | 1.0 | 0.00 | 0.00 | 0.00 | 37 | 1011.5 |
| 20260502024605 | 77 | 340 | 0.0 | 1.0 | 0.00 | 0.00 | 0.00 | 37 | 1011.5 |
| 20260502024529 | 77 | 340 | 0.0 | 1.0 | 0.00 | 0.00 | 0.00 | 37 | 1011.5 |
| 20260502024514 | 77 | 340 | 0.0 | 1.0 | 0.00 | 0.00 | 0.00 | 37 | 1011.5 |
| 20260502024452 | 77 | 340 | 0.0 | 1.0 | 0.00 | 0.00 | 0.00 | 36 | 1011.5 |
| 20260502024222 | 77 | 342 | 0.0 | 1.0 | 0.00 | 0.00 | 0.00 | 36 | 1011.4 |
| 20260502023905 | 77 | 342 | 0.0 | 1.0 | 0.00 | 0.00 | 0.00 | 36 | 1011.4 |
| 20260502023802 | 77 | 332 | 0.0 | 2.0 | 0.00 | 0.00 | 0.00 | 36 | 1011.4 |
| 20260502023734 | 78 | 332 | 1.0 | 2.0 | 0.00 | 0.00 | 0.00 | 36 | 1011.4 |
| 20260502023722 | 78 | 332 | 1.0 | 2.0 | 0.00 | 0.00 | 0.00 | 36 | 1011.4 |
| 20260502023402 | 78 | 330 | 0.0 | 2.0 | 0.00 | 0.00 | 0.00 | 36 | 1011.4 |
| 20260502023301 | 78 | 305 | 0.0 | 2.0 | 0.00 | 0.00 | 0.00 | 36 | 1011.4 |
| 20260502023202 | 78 | 305 | 0.0 | 2.0 | 0.00 | 0.00 | 0.00 | 36 | 1011.4 |
| 20260502023102 | 78 | 313 | 0.0 | 2.0 | 0.00 | 0.00 | 0.00 | 35 | 1011.4 |
| 20260502023004 | 78 | 313 | 1.0 | 3.0 | 0.00 | 0.00 | 0.00 | 35 | 1011.4 |
| 20260502022904 | 78 | 313 | 1.0 | 3.0 | 0.00 | 0.00 | 0.00 | 35 | 1011.4 |
| 20260502022803 | 78 | 310 | 1.0 | 3.0 | 0.00 | 0.00 | 0.00 | 35 | 1011.4 |
| 20260502022701 | 78 | 9 | 1.0 | 3.0 | 0.00 | 0.00 | 0.00 | 35 | 1011.4 |
| 20260502022603 | 78 | 22 | 1.0 | 3.0 | 0.00 | 0.00 | 0.00 | 35 | 1011.4 |
| 20260502022501 | 78 | 352 | 1.0 | 3.0 | 0.00 | 0.00 | 0.00 | 34 | 1011.3 |
| 20260502022405 | 78 | 5 | 1.0 | 3.0 | 0.00 | 0.00 | 0.00 | 35 | 1011.4 |
| 20260502022300 | 78 | 5 | 2.0 | 3.0 | 0.00 | 0.00 | 0.00 | 34 | 1011.4 |
| 20260502022203 | 78 | 5 | 1.0 | 3.0 | 0.00 | 0.00 | 0.00 | 34 | 1011.4 |
| 20260502022101 | 78 | 5 | 1.0 | 3.0 | 0.00 | 0.00 | 0.00 | 34 | 1011.4 |
| 20260502022001 | 78 | 352 | 1.0 | 2.0 | 0.00 | 0.00 | 0.00 | 34 | 1011.4 |
| 20260502021902 | 78 | 352 | 1.0 | 3.0 | 0.00 | 0.00 | 0.00 | 34 | 1011.4 |
| 20260502021801 | 78 | 336 | 1.0 | 3.0 | 0.00 | 0.00 | 0.00 | 34 | 1011.4 |
| 20260502021701 | 78 | 11 | 1.0 | 3.0 | 0.00 | 0.00 | 0.00 | 35 | 1011.4 |
| 20260502021602 | 78 | 352 | 1.0 | 3.0 | 0.00 | 0.00 | 0.00 | 34 | 1011.4 |
| 20260502021507 | 78 | 19 | 1.0 | 3.0 | 0.00 | 0.00 | 0.00 | 34 | 1011.4 |
| 20260502021442 | 78 | 0 | 1.0 | 3.0 | 0.00 | 0.00 | 0.00 | 34 | 1011.4 |
| 20260502021420 | 79 | 334 | 1.0 | 3.0 | 0.00 | 0.00 | 0.00 | 34 | 1011.5 |
| 20260502021103 | 79 | 0 | 1.0 | 3.0 | 0.00 | 0.00 | 0.00 | 34 | 1011.4 |
| 20260502021001 | 79 | 352 | 1.0 | 3.0 | 0.00 | 0.00 | 0.00 | 34 | 1011.4 |
| 20260502020902 | 79 | 352 | 1.0 | 3.0 | 0.00 | 0.00 | 0.00 | 34 | 1011.4 |
| 20260502020801 | 79 | 0 | 1.0 | 3.0 | 0.00 | 0.00 | 0.00 | 34 | 1011.5 |
| 20260502020733 | 79 | 9 | 1.0 | 3.0 | 0.00 | 0.00 | 0.00 | 34 | 1011.4 |
| 20260502020722 | 79 | 344 | 1.0 | 3.0 | 0.00 | 0.00 | 0.00 | 34 | 1011.4 |
| 20260502020401 | 79 | 352 | 1.0 | 3.0 | 0.00 | 0.00 | 0.00 | 34 | 1011.4 |
| 20260502020301 | 79 | 350 | 1.0 | 3.0 | 0.00 | 0.00 | 0.00 | 34 | 1011.4 |
| 20260502020201 | 79 | 23 | 2.0 | 3.0 | 0.00 | 0.00 | 0.00 | 34 | 1011.4 |
| 20260502020003 | 79 | 5 | 1.0 | 4.0 | 0.00 | 0.00 | 0.00 | 33 | 1011.5 |
| 20260502015904 | 79 | 336 | 2.0 | 4.0 | 0.00 | 0.00 | 0.00 | 34 | 1011.5 |
| 20260502015803 | 79 | 336 | 2.0 | 4.0 | 0.00 | 0.00 | 0.00 | 34 | 1011.5 |
| 20260502015701 | 79 | 328 | 2.0 | 5.0 | 0.00 | 0.00 | 0.00 | 34 | 1011.5 |
| 20260502015635 | 79 | 25 | 1.0 | 5.0 | 0.00 | 0.00 | 0.00 | 33 | 1011.5 |
| 20260502015622 | 79 | 339 | 2.0 | 5.0 | 0.00 | 0.00 | 0.00 | 34 | 1011.5 |
| 20260502015305 | 79 | 5 | 2.0 | 5.0 | 0.00 | 0.00 | 0.00 | 33 | 1011.5 |
| 20260502015202 | 79 | 35 | 2.0 | 5.0 | 0.00 | 0.00 | 0.00 | 33 | 1011.5 |
| 20260502015104 | 79 | 307 | 2.0 | 5.0 | 0.00 | 0.00 | 0.00 | 33 | 1011.5 |
| 20260502015045 | 79 | 0 | 2.0 | 5.0 | 0.00 | 0.00 | 0.00 | 33 | 1011.5 |
| 20260502015034 | 79 | 0 | 2.0 | 5.0 | 0.00 | 0.00 | 0.00 | 33 | 1011.5 |
| 20260502014702 | 80 | 324 | 2.0 | 4.0 | 0.00 | 0.00 | 0.00 | 33 | 1011.5 |
| 20260502014602 | 80 | 294 | 1.0 | 4.0 | 0.00 | 0.00 | 0.00 | 33 | 1011.5 |
| 20260502014536 | 80 | 338 | 1.0 | 4.0 | 0.00 | 0.00 | 0.00 | 33 | 1011.5 |
| 20260502014525 | 80 | 327 | 2.0 | 4.0 | 0.00 | 0.00 | 0.00 | 32 | 1011.5 |
| 20260502014153 | 80 | 338 | 2.0 | 4.0 | 0.00 | 0.00 | 0.00 | 32 | 1011.5 |
| 20260502014052 | 80 | 11 | 2.0 | 3.0 | 0.00 | 0.00 | 0.00 | 32 | 1011.5 |
| 20260502013958 | 80 | 302 | 1.0 | 3.0 | 0.00 | 0.00 | 0.00 | 32 | 1011.5 |
| 20260502013851 | 80 | 308 | 1.0 | 3.0 | 0.00 | 0.00 | 0.00 | 32 | 1011.5 |
| 20260502013750 | 80 | 314 | 1.0 | 3.0 | 0.00 | 0.00 | 0.00 | 32 | 1011.5 |
| 20260502013650 | 80 | 343 | 1.0 | 3.0 | 0.00 | 0.00 | 0.00 | 31 | 1011.5 |
| 20260502013619 | 80 | 296 | 1.0 | 3.0 | 0.00 | 0.00 | 0.00 | 32 | 1011.6 |
| 20260502013606 | 80 | 312 | 2.0 | 3.0 | 0.00 | 0.00 | 0.00 | 32 | 1011.5 |
| 20260502013316 | 80 | 316 | 2.0 | 6.0 | 0.00 | 0.00 | 0.00 | 32 | 1011.6 |
| 20260502013304 | 80 | 340 | 2.0 | 6.0 | 0.00 | 0.00 | 0.00 | 32 | 1011.6 |
| 20260502012941 | 80 | 11 | 1.0 | 6.0 | 0.00 | 0.00 | 0.00 | 31 | 1011.6 |
| 20260502012840 | 80 | 5 | 1.0 | 6.0 | 0.00 | 0.00 | 0.00 | 32 | 1011.7 |
| 20260502012731 | 80 | 271 | 2.0 | 6.0 | 0.00 | 0.00 | 0.00 | 32 | 1011.7 |
| 20260502012630 | 80 | 5 | 2.0 | 6.0 | 0.00 | 0.00 | 0.00 | 32 | 1011.7 |
| 20260502012530 | 80 | 26 | 2.0 | 6.0 | 0.00 | 0.00 | 0.00 | 32 | 1011.7 |
| 20260502012432 | 80 | 298 | 1.0 | 4.0 | 0.00 | 0.00 | 0.00 | 32 | 1011.7 |
| 20260502012331 | 80 | 302 | 2.0 | 4.0 | 0.00 | 0.00 | 0.00 | 32 | 1011.7 |
| 20260502012231 | 81 | 311 | 2.0 | 4.0 | 0.00 | 0.00 | 0.00 | 31 | 1011.7 |
| 20260502012158 | 81 | 331 | 2.0 | 3.0 | 0.00 | 0.00 | 0.00 | 31 | 1011.7 |
| 20260502012148 | 81 | 313 | 1.0 | 3.0 | 0.00 | 0.00 | 0.00 | 32 | 1011.7 |
| 20260502012136 | 81 | 331 | 1.0 | 3.0 | 0.00 | 0.00 | 0.00 | 32 | 1011.7 |
| 20260502011849 | 81 | 331 | 1.0 | 5.0 | 0.00 | 0.00 | 0.00 | 32 | 1011.7 |
| 20260502011529 | 81 | 329 | 1.0 | 5.0 | 0.00 | 0.00 | 0.00 | 31 | 1011.8 |
| 20260502011455 | 81 | 347 | 2.0 | 6.0 | 0.00 | 0.00 | 0.00 | 32 | 1011.8 |
| 20260502011440 | 81 | 352 | 2.0 | 6.0 | 0.00 | 0.00 | 0.00 | 31 | 1011.7 |
| 20260502011417 | 81 | 317 | 2.0 | 6.0 | 0.00 | 0.00 | 0.00 | 31 | 1011.8 |
| 20260502011403 | 81 | 301 | 2.0 | 6.0 | 0.00 | 0.00 | 0.00 | 31 | 1011.9 |
| 20260502011353 | 81 | 302 | 2.0 | 6.0 | 0.00 | 0.00 | 0.00 | 31 | 1011.8 |
| 20260502011120 | 81 | 292 | 4.0 | 6.0 | 0.00 | 0.00 | 0.00 | 31 | 1011.9 |
| 20260502010529 | 81 | 17 | 4.0 | 6.0 | 0.00 | 0.00 | 0.00 | 30 | 1011.9 |
| 20260502010429 | 81 | 340 | 2.0 | 6.0 | 0.00 | 0.00 | 0.00 | 31 | 1011.9 |
| 20260502010329 | 81 | 319 | 1.0 | 5.0 | 0.00 | 0.00 | 0.00 | 32 | 1012.0 |
| 20260502010229 | 81 | 286 | 2.0 | 5.0 | 0.00 | 0.00 | 0.00 | 32 | 1012.0 |
| 20260502010137 | 81 | 318 | 2.0 | 5.0 | 0.00 | 0.00 | 0.00 | 31 | 1012.0 |
| 20260502010122 | 81 | 352 | 2.0 | 5.0 | 0.00 | 0.00 | 0.00 | 31 | 1012.0 |
| 20260502010110 | 81 | 306 | 2.0 | 7.0 | 0.00 | 0.00 | 0.00 | 31 | 1012.0 |
| 20260502010056 | 81 | 332 | 2.0 | 7.0 | 0.00 | 0.00 | 0.00 | 31 | 1012.0 |
| 20260502005815 | 81 | 286 | 3.0 | 7.0 | 0.00 | 0.00 | 0.00 | 30 | 1012.0 |
| 20260502005542 | 81 | 317 | 3.0 | 7.0 | 0.00 | 0.00 | 0.00 | 31 | 1012.0 |
| 20260502005216 | 81 | 273 | 2.0 | 7.0 | 0.00 | 0.00 | 0.00 | 31 | 1012.0 |
| 20260502005116 | 82 | 333 | 2.0 | 7.0 | 0.00 | 0.00 | 0.00 | 31 | 1012.0 |
| 20260502005015 | 82 | 309 | 3.0 | 7.0 | 0.00 | 0.00 | 0.00 | 30 | 1012.0 |
| 20260502004915 | 82 | 351 | 3.0 | 5.0 | 0.00 | 0.00 | 0.00 | 29 | 1012.0 |
| 20260502004816 | 82 | 344 | 2.0 | 5.0 | 0.00 | 0.00 | 0.00 | 30 | 1012.0 |
| 20260502004712 | 82 | 352 | 2.0 | 5.0 | 0.00 | 0.00 | 0.00 | 30 | 1012.0 |
| 20260502004611 | 82 | 329 | 2.0 | 4.0 | 0.00 | 0.00 | 0.00 | 29 | 1012.0 |
| 20260502004512 | 82 | 294 | 2.0 | 4.0 | 0.00 | 0.00 | 0.00 | 29 | 1012.0 |
| 20260502004410 | 82 | 327 | 2.0 | 4.0 | 0.00 | 0.00 | 0.00 | 28 | 1012.0 |
| 20260502004315 | 82 | 342 | 2.0 | 4.0 | 0.00 | 0.00 | 0.00 | 28 | 1012.0 |
| 20260502004208 | 82 | 329 | 2.0 | 4.0 | 0.00 | 0.00 | 0.00 | 28 | 1012.0 |
| 20260502004108 | 82 | 0 | 3.0 | 4.0 | 0.00 | 0.00 | 0.00 | 28 | 1012.0 |
| 20260502004008 | 83 | 332 | 3.0 | 4.0 | 0.00 | 0.00 | 0.00 | 28 | 1012.0 |
| 20260502003910 | 83 | 333 | 2.0 | 4.0 | 0.00 | 0.00 | 0.00 | 28 | 1012.0 |
| 20260502003814 | 83 | 308 | 1.0 | 4.0 | 0.00 | 0.00 | 0.00 | 27 | 1012.0 |
| 20260502003701 | 83 | 304 | 1.0 | 4.0 | 0.00 | 0.00 | 0.00 | 27 | 1012.0 |
| 20260502003606 | 83 | 300 | 1.0 | 4.0 | 0.00 | 0.00 | 0.00 | 27 | 1012.0 |
| 20260502003501 | 83 | 290 | 2.0 | 4.0 | 0.00 | 0.00 | 0.00 | 26 | 1012.0 |
| 20260502003405 | 83 | 11 | 2.0 | 4.0 | 0.00 | 0.00 | 0.00 | 26 | 1012.1 |
| 20260502003310 | 83 | 0 | 2.0 | 4.0 | 0.00 | 0.00 | 0.00 | 26 | 1012.0 |
| 20260502003204 | 83 | 5 | 2.0 | 3.0 | 0.00 | 0.00 | 0.00 | 26 | 1012.1 |
| 20260502003101 | 83 | 339 | 2.0 | 3.0 | 0.00 | 0.00 | 0.00 | 25 | 1012.1 |
| 20260502003003 | 83 | 5 | 1.0 | 3.0 | 0.00 | 0.00 | 0.00 | 26 | 1012.1 |
| 20260502002904 | 83 | 347 | 0.0 | 3.0 | 0.00 | 0.00 | 0.00 | 25 | 1012.1 |
| 20260502002811 | 83 | 323 | 1.0 | 3.0 | 0.00 | 0.00 | 0.00 | 26 | 1012.1 |
| 20260502002701 | 83 | 352 | 2.0 | 3.0 | 0.00 | 0.00 | 0.00 | 25 | 1012.1 |
| 20260502002631 | 83 | 352 | 2.0 | 3.0 | 0.00 | 0.00 | 0.00 | 26 | 1012.1 |
| 20260502002620 | 83 | 43 | 1.0 | 3.0 | 0.00 | 0.00 | 0.00 | 26 | 1012.2 |
| 20260502002306 | 83 | 292 | 1.0 | 3.0 | 0.00 | 0.00 | 0.00 | 27 | 1012.1 |
| 20260502002201 | 83 | 325 | 1.0 | 3.0 | 0.00 | 0.00 | 0.00 | 27 | 1012.2 |
| 20260502002101 | 83 | 304 | 1.0 | 3.0 | 0.00 | 0.00 | 0.00 | 27 | 1012.2 |
| 20260502002001 | 83 | 351 | 1.0 | 3.0 | 0.00 | 0.00 | 0.00 | 27 | 1012.1 |
| 20260502001905 | 83 | 342 | 1.0 | 3.0 | 0.00 | 0.00 | 0.00 | 27 | 1012.2 |
| 20260502001808 | 83 | 340 | 2.0 | 3.0 | 0.00 | 0.00 | 0.00 | 27 | 1012.1 |
| 20260502001702 | 83 | 234 | 1.0 | 4.0 | 0.00 | 0.00 | 0.00 | 26 | 1012.2 |
| 20260502001633 | 83 | 236 | 1.0 | 4.0 | 0.00 | 0.00 | 0.00 | 27 | 1012.1 |
| 20260502001618 | 83 | 305 | 1.0 | 4.0 | 0.00 | 0.00 | 0.00 | 27 | 1012.2 |
| 20260502001327 | 83 | 273 | 1.0 | 5.0 | 0.00 | 0.00 | 0.00 | 27 | 1012.2 |
| 20260502001304 | 83 | 286 | 0.0 | 5.0 | 0.00 | 0.00 | 0.00 | 26 | 1012.2 |
| 20260502001252 | 83 | 112 | 0.0 | 5.0 | 0.00 | 0.00 | 0.00 | 27 | 1012.2 |
| 20260502001240 | 83 | 312 | 1.0 | 5.0 | 0.00 | 0.00 | 0.00 | 26 | 1012.2 |
| 20260502000653 | 83 | 22 | 3.0 | 5.0 | 0.00 | 0.00 | 0.00 | 27 | 1012.2 |
| 20260502000551 | 83 | 11 | 3.0 | 6.0 | 0.00 | 0.00 | 0.00 | 27 | 1012.2 |
| 20260502000450 | 83 | 352 | 3.0 | 6.0 | 0.00 | 0.00 | 0.00 | 28 | 1012.2 |
| 20260502000349 | 83 | 13 | 3.0 | 6.0 | 0.00 | 0.00 | 0.00 | 27 | 1012.2 |
| 20260502000310 | 83 | 349 | 3.0 | 6.0 | 0.00 | 0.00 | 0.00 | 27 | 1012.2 |
| 20260502000247 | 83 | 352 | 3.0 | 6.0 | 0.00 | 0.00 | 0.00 | 27 | 1012.2 |
| 20260502000233 | 83 | 336 | 3.0 | 6.0 | 0.00 | 0.00 | 0.00 | 28 | 1012.2 |
| 20260502000220 | 83 | 272 | 2.0 | 6.0 | 0.00 | 0.00 | 0.00 | 27 | 1012.2 |
| 20260501235938 | 83 | 317 | 2.0 | 6.0 | 0.00 | 0.00 | 0.00 | 27 | 1012.2 |
| 20260501235703 | 83 | 268 | 1.0 | 5.0 | 0.00 | 0.00 | 0.00 | 28 | 1012.2 |
| 20260501235402 | 83 | 270 | 3.0 | 5.0 | 0.00 | 0.00 | 0.00 | 26 | 1012.2 |
| 20260501235339 | 83 | 259 | 3.0 | 5.0 | 0.00 | 0.00 | 0.00 | 26 | 1012.2 |
| 20260501235328 | 83 | 242 | 3.0 | 5.0 | 0.00 | 0.00 | 0.00 | 26 | 1012.2 |
| 20260501235056 | 83 | 284 | 2.0 | 5.0 | 0.00 | 0.00 | 0.00 | 27 | 1012.2 |
| 20260501234733 | 83 | 309 | 3.0 | 6.0 | 0.00 | 0.00 | 0.00 | 27 | 1012.3 |
| 20260501234629 | 83 | 321 | 2.0 | 6.0 | 0.00 | 0.00 | 0.00 | 27 | 1012.3 |
| 20260501234530 | 83 | 294 | 1.0 | 6.0 | 0.00 | 0.00 | 0.00 | 27 | 1012.3 |
| 20260501234429 | 83 | 56 | 1.0 | 6.0 | 0.00 | 0.00 | 0.00 | 27 | 1012.3 |
| 20260501234332 | 83 | 32 | 2.0 | 6.0 | 0.00 | 0.00 | 0.00 | 28 | 1012.3 |
| 20260501234230 | 83 | 5 | 2.0 | 6.0 | 0.00 | 0.00 | 0.00 | 27 | 1012.3 |
| 20260501234125 | 83 | 352 | 3.0 | 6.0 | 0.00 | 0.00 | 0.00 | 27 | 1012.3 |
| 20260501234023 | 83 | 42 | 3.0 | 6.0 | 0.00 | 0.00 | 0.00 | 27 | 1012.3 |
| 20260501233924 | 83 | 88 | 1.0 | 6.0 | 0.00 | 0.00 | 0.00 | 28 | 1012.3 |
| 20260501233822 | 83 | 55 | 0.0 | 6.0 | 0.00 | 0.00 | 0.00 | 28 | 1012.3 |
| 20260501233721 | 83 | 346 | 0.0 | 6.0 | 0.00 | 0.00 | 0.00 | 28 | 1012.3 |
| 20260501233621 | 83 | 304 | 1.0 | 6.0 | 0.00 | 0.00 | 0.00 | 30 | 1012.3 |
| 20260501233521 | 83 | 302 | 2.0 | 6.0 | 0.00 | 0.00 | 0.00 | 29 | 1012.3 |
| 20260501233454 | 83 | 346 | 3.0 | 6.0 | 0.00 | 0.00 | 0.00 | 29 | 1012.3 |
| 20260501233444 | 83 | 302 | 3.0 | 6.0 | 0.00 | 0.00 | 0.00 | 28 | 1012.3 |
| 20260501233117 | 83 | 266 | 2.0 | 6.0 | 0.00 | 0.00 | 0.00 | 28 | 1012.3 |
| 20260501233011 | 83 | 276 | 2.0 | 6.0 | 0.00 | 0.00 | 0.00 | 28 | 1012.3 |
| 20260501232911 | 83 | 292 | 2.0 | 5.0 | 0.00 | 0.00 | 0.00 | 29 | 1012.3 |
| 20260501232810 | 83 | 284 | 2.0 | 5.0 | 0.00 | 0.00 | 0.00 | 28 | 1012.4 |
| 20260501232711 | 83 | 292 | 3.0 | 5.0 | 0.00 | 0.00 | 0.00 | 28 | 1012.4 |
| 20260501232609 | 83 | 352 | 3.0 | 5.0 | 0.00 | 0.00 | 0.00 | 29 | 1012.4 |
| 20260501232513 | 83 | 311 | 3.0 | 5.0 | 0.00 | 0.00 | 0.00 | 29 | 1012.4 |
| 20260501232408 | 83 | 326 | 3.0 | 5.0 | 0.00 | 0.00 | 0.00 | 27 | 1012.4 |
| 20260501232309 | 83 | 5 | 2.0 | 7.0 | 0.00 | 0.00 | 0.00 | 27 | 1012.4 |
| 20260501232206 | 83 | 34 | 2.0 | 7.0 | 0.00 | 0.00 | 0.00 | 29 | 1012.4 |
| 20260501232104 | 83 | 18 | 2.0 | 7.0 | 0.00 | 0.00 | 0.00 | 29 | 1012.4 |
| 20260501232002 | 83 | 34 | 2.0 | 7.0 | 0.00 | 0.00 | 0.00 | 29 | 1012.4 |
| 20260501231904 | 83 | 81 | 2.0 | 7.0 | 0.00 | 0.00 | 0.00 | 29 | 1012.4 |
| 20260501231805 | 83 | 63 | 2.0 | 7.0 | 0.00 | 0.00 | 0.00 | 28 | 1012.4 |
| 20260501231735 | 83 | 40 | 2.0 | 7.0 | 0.00 | 0.00 | 0.00 | 29 | 1012.4 |
| 20260501231722 | 83 | 49 | 2.0 | 7.0 | 0.00 | 0.00 | 0.00 | 29 | 1012.4 |
| 20260501231402 | 83 | 346 | 3.0 | 6.0 | 0.00 | 0.00 | 0.00 | 29 | 1012.5 |
| 20260501231303 | 82 | 352 | 3.0 | 6.0 | 0.00 | 0.00 | 0.00 | 30 | 1012.5 |
| 20260501231201 | 83 | 26 | 3.0 | 6.0 | 0.00 | 0.00 | 0.00 | 29 | 1012.6 |
| 20260501231102 | 82 | 288 | 4.0 | 5.0 | 0.00 | 0.00 | 0.00 | 28 | 1012.5 |
| 20260501231001 | 83 | 334 | 3.0 | 5.0 | 0.00 | 0.00 | 0.00 | 28 | 1012.5 |
| 20260501230903 | 83 | 347 | 2.0 | 5.0 | 0.00 | 0.00 | 0.00 | 28 | 1012.5 |
| 20260501230801 | 83 | 329 | 2.0 | 5.0 | 0.00 | 0.00 | 0.00 | 29 | 1012.6 |
| 20260501230702 | 83 | 337 | 3.0 | 5.0 | 0.00 | 0.00 | 0.00 | 29 | 1012.6 |
| 20260501230601 | 83 | 67 | 2.0 | 5.0 | 0.00 | 0.00 | 0.00 | 29 | 1012.6 |
| 20260501230502 | 83 | 5 | 1.0 | 6.0 | 0.00 | 0.00 | 0.00 | 27 | 1012.6 |
| 20260501230401 | 82 | 352 | 1.0 | 6.0 | 0.00 | 0.00 | 0.00 | 27 | 1012.6 |
| 20260501230346 | 82 | 89 | 1.0 | 6.0 | 0.00 | 0.00 | 0.00 | 28 | 1012.6 |
| 20260501230321 | 82 | 59 | 2.0 | 6.0 | 0.00 | 0.00 | 0.00 | 27 | 1012.6 |